GFSNGP_250_spd_057.txt.gz
Wind_Speed
96 102 103 99 100 100 99 97 93 94 95 103 98 96 91 83 78 73 69 76 72 71 60 51 45 42 40 34 37 37 32 30 25 25 25 25 27 26 26 25 26 26 24 26
96 101 103 99 102 101 99 94 94 96 95 104 104 97 93 87 82 76 73 78 73 75 74 49 45 43 44 43 42 39 36 35 30 26 23 26 26 26 25 26 26 27 27 25
90 101 105 101 97 100 98 101 99 100 104 108 105 100 95 92 88 85 83 81 77 70 71 57 53 49 38 42 42 47 42 39 37 33 30 29 27 28 28 27 25 28 29 30
88 97 99 95 103 102 106 102 102 105 111 114 106 103 98 97 97 94 88 82 85 79 70 67 57 41 37 43 53 52 48 43 41 40 37 34 30 30 29 28 27 27 26 28
76 91 86 89 95 102 105 103 107 110 113 112 108 104 107 107 102 98 96 88 89 75 66 57 63 55 36 28 63 56 53 50 45 42 41 38 36 32 30 29 29 29 29 28
61 74 76 84 93 102 110 105 111 113 111 108 110 109 111 112 109 105 102 98 91 82 79 74 61 46 64 50 49 58 63 58 52 45 45 43 39 37 34 32 31 29 28 28
52 62 67 75 86 92 95 96 108 109 107 105 112 114 114 118 116 114 107 110 108 100 94 95 82 60 60 67 57 60 66 66 54 51 47 45 41 40 39 36 32 31 31 30
43 51 61 69 80 81 84 90 103 110 107 108 115 119 120 122 124 123 116 114 117 112 106 100 97 84 74 71 72 59 59 61 58 54 50 48 45 43 41 39 35 35 35 33
35 47 54 58 62 68 76 82 95 101 106 108 118 123 125 127 130 129 124 116 116 117 113 104 102 99 93 91 72 71 51 54 55 58 53 51 49 45 43 41 40 39 38 38
29 38 43 48 55 59 64 68 79 93 97 99 110 122 127 132 133 128 124 123 119 119 114 110 109 105 103 100 86 81 73 65 58 58 57 56 52 48 46 45 44 43 42 43
24 26 31 39 47 52 54 56 67 79 88 95 106 122 129 135 134 130 128 127 123 117 117 114 113 110 105 107 103 95 86 76 72 67 66 62 56 52 50 48 47 48 48 46
20 21 25 32 39 45 47 48 55 66 75 88 95 112 127 126 121 129 129 128 127 121 121 117 112 111 109 108 104 99 94 86 79 75 72 67 59 56 55 55 53 53 51 50
8 13 18 24 29 34 39 43 50 54 63 76 84 95 110 117 118 125 129 130 130 125 123 118 116 114 110 108 105 101 96 92 85 80 75 70 63 60 60 60 58 55 52 51
13 16 15 16 21 27 31 36 45 49 56 69 77 89 101 109 113 120 127 131 132 130 123 120 117 111 108 109 106 101 96 94 88 82 77 72 67 63 64 65 60 57 55 51
21 20 18 20 22 27 32 35 40 45 51 64 72 81 91 99 108 116 124 126 130 128 126 122 119 112 108 106 105 102 98 95 87 82 77 73 71 67 68 67 61 60 58 56
27 26 24 22 21 24 30 34 39 44 50 56 67 76 85 95 104 108 111 117 121 124 124 123 122 113 111 106 104 102 98 94 88 84 79 75 72 72 71 67 63 62 59 56
28 29 27 25 24 25 28 33 37 40 48 56 65 75 82 92 96 101 106 112 116 118 119 123 123 117 110 106 102 100 99 94 89 88 81 75 69 67 62 62 60 56 54 53
29 32 32 29 27 28 28 29 32 38 46 54 59 66 75 83 83 91 98 102 112 113 116 119 124 121 112 103 97 98 97 93 91 89 84 73 69 68 65 56 58 59 55 59
27 34 37 34 35 32 30 31 31 34 39 45 52 58 66 73 75 82 89 96 107 112 112 116 117 119 110 102 99 97 94 89 87 84 78 73 69 66 62 56 50 53 61 55
34 37 39 40 40 38 36 35 33 34 35 37 41 47 56 61 68 75 85 93 104 112 113 111 110 109 106 101 89 85 94 91 85 74 72 73 68 63 63 61 65 68 63 59
35 40 44 43 43 43 43 43 41 40 40 36 35 40 46 55 62 70 83 94 100 107 108 109 108 109 109 105 98 85 77 87 89 80 74 69 72 66 65 63 67 72 75 77
32 42 42 46 46 49 52 50 51 49 48 46 44 45 49 55 62 71 82 91 100 105 107 107 105 107 109 111 106 104 91 83 83 84 84 81 63 63 62 64 72 80 83 83
31 36 45 46 49 51 55 58 58 56 55 54 54 54 57 61 66 74 83 88 93 101 103 103 95 107 111 112 110 108 103 94 88 84 80 83 85 89 72 65 64 72 81 86
28 33 38 47 50 53 55 61 61 61 61 61 60 60 63 67 69 74 78 86 90 94 99 101 103 105 113 113 113 109 110 103 97 91 88 89 88 88 86 92 88 80 81 83
29 30 35 41 44 55 56 59 65 65 66 67 68 68 67 69 73 76 80 85 95 98 104 105 107 101 105 108 114 114 112 111 108 104 104 100 99 99 101 100 101 95 93 90
27 30 30 37 43 49 58 61 62 68 71 74 74 74 74 73 74 79 84 88 90 95 99 104 109 110 109 111 110 112 114 114 114 112 106 104 101 104 106 106 105 104 104 104
25 25 29 35 36 45 53 58 70 67 72 76 82 82 83 81 79 81 81 86 89 93 97 103 107 112 117 120 113 112 112 113 113 113 111 111 110 110 110 113 113 111 110 111

GFSNGP_250_spd_060.txt.gz
Wind_Speed
103 109 107 104 103 102 101 101 97 95 98 100 96 89 83 81 77 76 70 60 65 62 62 53 46 41 38 35 36 35 33 30 27 25 23 22 27 28 29 31 31 30 29 26
102 108 111 108 105 103 99 104 104 100 100 99 99 93 86 83 82 78 78 69 72 66 68 62 54 49 42 42 40 39 40 37 31 30 28 29 26 25 24 24 23 24 24 23
99 104 109 107 106 109 106 103 107 104 104 99 100 101 92 86 86 83 80 74 75 72 66 62 62 57 47 49 46 42 39 41 37 33 33 31 29 27 27 27 25 24 24 25
89 98 102 101 106 111 109 113 113 107 106 103 97 104 99 92 87 89 86 80 79 76 70 65 66 64 60 55 47 42 45 45 44 37 36 36 32 31 29 30 30 28 26 24
85 93 94 97 107 110 112 114 115 110 109 104 99 104 104 99 93 96 93 91 88 82 78 73 70 65 66 59 53 50 47 52 50 47 39 41 39 33 26 23 22 26 26 24
68 81 89 92 95 101 109 108 110 110 112 109 103 106 108 105 102 97 102 101 96 91 86 80 75 56 68 69 60 57 53 54 56 55 45 45 45 37 30 26 25 21 22 24
56 64 75 82 90 94 94 97 109 111 112 112 110 110 113 112 108 104 106 107 103 98 94 87 79 62 70 75 68 62 61 57 55 55 51 47 43 39 35 31 29 27 25 24
48 54 58 67 76 82 84 86 98 108 112 113 114 114 116 118 115 113 108 113 109 105 102 96 94 85 73 69 69 58 49 57 53 54 53 55 50 41 40 35 32 32 28 28
37 45 47 54 63 69 74 78 93 100 110 112 115 118 118 121 121 118 115 113 116 110 106 101 98 93 82 75 68 66 58 52 56 50 52 53 52 56 43 40 37 36 34 33
27 34 38 45 51 57 63 68 81 93 98 108 115 120 124 123 123 122 118 118 116 115 110 105 103 96 90 85 77 67 71 67 66 59 59 57 60 51 48 43 43 40 37 36
24 26 27 34 41 48 53 57 69 82 91 96 110 120 126 126 127 127 124 123 122 118 117 109 108 103 97 93 86 74 61 74 72 69 64 61 60 56 57 50 46 44 42 40
24 23 23 29 34 40 46 53 61 69 79 90 99 115 121 127 130 132 130 127 128 124 120 116 116 111 102 101 94 91 85 73 74 67 63 67 65 57 59 54 51 49 45 44
25 24 23 24 30 34 39 48 53 62 68 77 89 104 120 127 136 135 127 129 129 129 126 120 120 121 112 114 105 98 94 86 78 68 61 65 63 63 58 53 51 48 48 49
28 25 23 25 27 28 30 37 49 56 62 70 81 87 99 111 116 125 127 125 127 130 131 127 128 126 120 122 114 110 105 96 87 76 72 70 69 66 62 58 57 53 53 53
29 29 28 26 28 28 30 33 41 49 56 61 67 76 86 97 106 111 124 126 126 129 135 134 131 131 130 130 115 115 113 107 100 99 91 85 81 80 78 69 65 60 60 59
33 31 30 30 29 28 29 31 35 40 44 54 63 70 78 85 97 110 119 129 129 128 137 138 137 133 133 131 126 121 116 113 104 103 105 99 96 95 90 80 74 68 68 66
32 33 30 34 32 30 30 29 31 35 39 44 56 66 73 79 92 102 112 123 130 132 134 139 140 137 137 134 134 122 121 119 113 106 108 105 104 99 88 81 78 75 70 69
31 35 32 33 35 34 31 30 27 29 35 39 48 61 69 76 83 93 101 106 116 130 132 133 137 138 137 138 137 131 130 126 119 112 109 111 107 102 93 88 82 78 74 74
31 35 33 32 34 35 32 29 24 27 28 35 42 55 63 68 71 79 88 96 108 111 121 124 128 135 139 136 132 129 133 130 123 115 109 113 112 105 95 92 88 85 77 73
28 31 36 31 33 34 32 28 29 27 30 33 39 47 57 62 65 70 76 86 97 105 110 119 123 127 133 132 127 128 124 127 124 120 113 113 113 107 99 95 90 85 79 77
23 30 33 36 33 35 36 32 31 29 29 31 36 44 51 54 58 66 73 77 83 91 97 108 118 120 121 120 122 125 122 126 120 119 115 112 110 102 98 91 83 82 81 80
19 27 30 35 36 37 37 37 33 32 31 33 35 37 42 44 48 54 61 66 72 79 87 93 103 106 106 106 123 124 121 128 122 112 112 106 103 101 95 92 86 82 88 80
20 22 29 33 37 38 39 39 39 36 33 36 35 36 36 36 39 47 54 62 65 69 77 83 91 101 113 123 119 115 121 129 128 118 110 108 103 96 58 63 94 90 85 86
22 23 26 31 36 38 43 42 41 44 40 38 37 35 35 36 39 44 50 55 59 63 67 73 81 89 96 98 96 112 112 121 122 118 114 112 106 104 102 95 89 85 87 87
20 23 24 29 34 37 40 46 44 41 47 43 41 38 39 40 42 43 47 50 54 58 63 71 80 91 95 106 115 108 107 109 93 102 117 115 113 115 114 105 102 92 86 88
20 18 18 29 31 36 38 46 48 46 49 51 47 45 45 44 45 47 50 52 55 62 68 74 82 83 88 98 103 112 113 112 98 101 106 116 119 114 113 117 115 114 107 104
16 17 15 22 31 34 36 39 47 49 50 52 55 51 51 49 50 53 57 61 64 66 74 79 85 91 96 101 105 112 121 120 120 115 112 113 109 110 108 107 109 108 106 108

GFSNGP_250_spd_063.txt.gz
Wind_Speed
106 106 107 107 105 105 105 107 106 101 94 92 91 90 86 83 80 77 74 66 58 59 64 52 47 47 47 41 36 34 32 28 28 26 22 22 31 36 36 35 33 30 29 27
107 107 106 107 110 109 109 108 107 105 103 99 95 92 90 87 84 81 79 74 69 66 63 55 53 52 50 44 40 39 39 35 30 25 26 23 21 27 32 33 32 31 28 26
101 108 110 109 111 114 114 112 110 109 107 103 102 99 94 89 87 85 83 80 76 72 64 60 62 59 58 51 48 45 40 38 35 32 29 26 24 21 23 26 25 27 26 22
87 95 103 112 114 114 115 115 113 111 110 108 107 105 102 97 91 88 85 85 82 79 72 63 68 69 67 60 53 49 45 43 41 37 34 30 28 27 26 26 27 27 26 25
85 90 93 97 107 116 116 116 116 115 111 111 111 108 106 104 97 93 88 89 87 87 85 84 77 71 72 67 59 54 51 50 44 41 38 35 34 33 29 28 29 31 29 27
82 87 90 93 96 104 114 115 114 117 116 114 113 112 112 109 104 101 96 92 93 91 93 89 83 82 80 74 69 63 56 53 50 46 42 39 37 36 36 32 29 25 25 27
65 74 83 90 93 96 99 101 112 114 118 118 116 113 115 114 112 107 104 99 97 97 97 97 93 85 88 81 78 72 66 58 57 50 46 45 42 40 39 39 31 27 23 24
55 60 67 78 83 87 93 97 99 108 115 116 118 116 115 116 116 112 107 105 101 99 99 102 99 95 92 86 81 80 75 67 64 57 49 48 47 46 43 44 37 32 30 29
45 50 56 64 68 76 82 89 92 95 98 110 114 119 118 119 118 117 113 109 107 102 101 98 104 101 96 91 82 83 85 78 68 65 59 53 47 46 45 48 44 40 34 34
41 41 47 52 57 63 71 77 80 85 89 94 105 114 120 122 121 118 117 114 111 108 104 103 106 106 101 100 86 88 88 85 76 69 64 59 55 54 53 51 47 47 41 38
33 35 40 43 47 53 59 64 67 73 77 83 96 105 115 121 123 122 119 119 117 114 111 109 108 108 106 103 94 87 89 88 84 78 68 65 61 58 57 57 48 53 47 43
34 35 35 35 41 45 48 54 59 62 66 72 86 99 108 118 123 123 122 122 120 117 117 117 113 111 110 109 100 93 91 83 81 82 74 67 61 61 62 59 52 52 55 51
35 36 35 34 34 35 46 46 55 58 60 66 76 92 99 108 115 120 125 126 121 121 122 124 120 117 113 112 105 99 94 92 80 77 79 79 67 65 71 66 58 55 56 57
34 35 36 35 33 32 35 39 50 54 57 61 68 81 95 103 109 118 123 126 124 124 125 126 127 124 118 114 114 107 102 96 82 84 85 80 75 72 77 75 67 60 59 62
34 33 35 37 36 32 31 34 38 44 53 59 65 71 86 98 105 112 116 120 122 121 124 128 128 130 123 122 119 115 113 105 91 91 88 88 77 76 80 71 68 63 60 60
32 33 33 35 38 34 31 33 34 37 42 51 60 66 74 88 98 102 105 113 116 115 114 119 127 132 130 125 124 118 120 115 108 95 91 86 81 77 77 77 67 66 70 72
29 31 31 32 37 36 35 33 33 32 36 42 51 62 70 78 87 93 98 105 109 113 115 114 118 128 135 130 129 124 121 119 115 107 95 95 89 86 85 80 83 70 69 71
31 30 29 30 32 37 37 36 33 32 29 34 39 50 62 72 77 85 93 99 100 110 117 118 119 120 131 135 131 129 128 123 122 114 108 101 100 94 90 85 83 74 75 76
29 29 30 31 30 31 37 36 34 30 29 31 32 34 47 59 70 75 83 91 92 100 115 115 115 118 120 129 137 129 131 130 128 122 116 113 110 105 101 94 91 92 88 83
26 27 26 30 30 27 33 34 34 29 26 28 29 33 39 50 62 68 73 79 86 95 105 115 117 119 122 125 134 131 131 136 133 125 118 120 119 114 112 107 101 96 93 95
24 25 26 25 30 27 30 33 33 28 26 27 30 32 36 45 53 61 67 71 78 85 95 102 110 113 117 119 126 132 136 133 133 131 123 122 125 120 119 112 111 105 102 103
25 25 27 27 28 30 28 32 33 30 28 29 29 32 34 40 46 53 57 62 67 77 85 93 98 107 111 112 117 127 134 133 130 132 127 129 122 119 119 124 121 117 111 107
30 29 28 28 28 30 28 31 34 34 30 31 29 33 35 37 41 46 50 55 58 63 74 84 90 97 103 108 111 115 120 124 128 128 128 131 126 124 124 120 122 120 115 109
27 26 27 27 29 27 28 31 33 35 31 32 32 35 36 36 39 40 40 42 50 57 63 73 83 89 94 98 99 106 112 113 118 125 126 121 124 127 124 126 121 119 119 114
20 23 27 26 26 26 26 29 33 34 35 33 33 33 34 34 34 33 33 35 43 51 58 65 72 78 81 84 91 99 103 107 113 117 116 119 124 125 123 123 122 117 115 112
20 19 22 25 24 23 24 27 32 34 38 35 35 34 33 33 34 31 33 36 39 44 50 56 60 65 71 77 84 92 98 99 97 93 97 107 106 127 119 117 117 113 106 109
20 20 16 21 23 21 22 24 29 33 37 39 36 36 33 35 34 34 35 36 39 42 47 53 58 63 69 74 78 82 86 94 100 97 97 101 107 114 114 115 113 107 110 113

GFSNGP_250_spd_069.txt.gz
Wind_Speed
104 104 102 102 101 98 96 94 93 90 89 89 88 86 85 85 82 78 74 70 67 63 58 53 46 42 42 38 41 39 35 33 32 32 31 27 27 32 31 33 34 31 30 28
104 107 107 105 106 105 103 99 97 95 93 90 89 89 88 87 85 84 82 77 73 71 67 62 57 53 47 42 44 45 37 36 33 35 34 32 29 29 32 33 34 33 33 31
101 105 106 107 106 106 106 106 104 101 98 95 93 91 90 90 89 86 85 83 80 76 74 71 65 59 54 50 52 50 51 40 36 38 37 37 30 28 30 31 29 33 33 32
99 103 105 106 107 108 107 107 106 105 103 100 96 96 96 93 92 90 88 87 85 82 79 77 73 68 62 57 58 56 54 48 50 43 41 39 34 32 32 31 30 31 32 33
87 98 102 104 108 110 111 110 109 109 108 106 104 101 99 97 96 95 92 90 89 87 85 83 80 75 71 66 66 67 61 60 59 51 45 42 44 39 36 33 31 30 28 28
79 85 92 101 107 109 110 111 112 112 111 110 109 108 105 103 100 98 97 95 94 92 90 88 86 83 79 75 72 71 69 63 62 54 51 50 48 45 39 35 31 27 28 29
77 80 82 86 95 104 110 111 113 114 114 113 113 110 111 110 108 105 103 100 98 97 96 93 91 89 85 83 79 74 73 71 69 65 58 58 55 50 46 41 36 33 32 31
75 78 81 83 86 89 94 101 109 115 117 118 118 118 117 116 114 112 110 108 104 101 101 100 96 94 91 89 86 82 77 77 73 73 64 62 59 56 50 47 42 40 35 32
69 73 78 82 84 85 85 89 94 100 108 116 119 120 120 121 120 117 116 115 114 109 105 104 104 100 98 95 90 87 84 79 80 76 72 67 64 62 55 53 48 41 39 38
63 68 72 75 79 81 84 88 92 95 97 101 109 118 122 122 123 124 121 120 119 117 114 111 108 106 104 101 97 92 89 86 83 84 80 76 70 67 60 55 54 50 45 45
56 62 67 71 74 78 80 83 86 90 94 95 97 102 110 120 125 124 124 125 123 122 120 119 117 112 109 108 103 98 95 92 89 88 86 82 77 74 67 62 58 54 51 48
52 53 57 63 67 72 74 76 77 80 83 87 92 98 100 104 109 117 126 126 125 127 126 125 123 120 118 113 108 105 102 98 95 92 90 89 85 79 73 67 66 63 58 53
45 48 52 56 57 61 65 68 71 73 76 79 82 86 90 95 99 103 109 117 125 128 126 130 129 123 122 121 116 109 107 105 102 97 97 94 92 88 84 75 71 68 65 60
44 43 45 48 51 57 59 59 62 67 69 71 73 76 79 83 85 91 99 106 111 116 125 129 131 129 126 124 121 118 112 109 107 105 101 100 97 96 93 88 80 76 72 67
47 45 42 44 46 48 54 57 59 60 62 63 63 64 68 74 75 77 83 94 103 108 111 120 128 129 129 127 122 121 119 115 112 108 107 105 103 99 100 96 89 86 78 75
37 36 39 40 41 42 44 48 51 52 53 55 58 61 62 65 68 72 72 77 89 100 105 107 114 126 128 126 122 120 121 121 119 114 110 109 107 102 101 102 99 95 90 86
33 34 33 33 34 35 39 44 50 52 50 52 53 56 58 60 64 67 70 68 76 88 96 101 104 111 123 130 123 118 120 123 125 122 116 112 110 107 104 99 101 100 95 94
29 29 30 31 31 32 36 40 45 47 47 45 49 50 52 55 58 64 66 63 67 76 84 93 99 102 108 119 127 123 117 122 125 126 123 119 114 112 108 107 106 105 102 98
29 30 31 31 32 33 31 34 41 42 44 43 45 47 48 50 53 58 60 61 63 68 76 84 91 97 101 108 119 123 119 118 122 126 127 126 121 116 113 111 110 109 104 102
26 27 27 29 32 35 34 35 36 35 38 39 40 43 46 46 49 53 56 57 60 63 69 77 84 90 96 101 107 114 119 116 117 123 126 128 125 121 117 114 112 110 108 105
26 26 26 26 28 32 31 32 34 31 32 35 37 40 41 45 49 50 51 53 55 60 63 68 74 79 86 93 100 105 110 113 115 118 124 126 126 124 121 117 114 114 111 109
27 27 26 26 23 25 28 30 33 32 33 34 36 37 40 45 48 47 48 50 51 55 58 62 66 70 75 82 87 89 93 103 112 117 120 123 125 126 125 122 119 115 114 111
27 28 29 29 26 24 22 26 30 34 32 32 34 34 36 41 43 44 46 47 48 50 54 56 57 61 66 70 74 77 85 92 103 112 116 120 123 123 123 125 121 121 116 114
29 29 27 26 25 22 18 23 26 31 30 30 33 32 33 37 39 38 40 41 43 45 47 49 50 53 56 59 63 69 76 86 93 102 111 115 118 118 121 123 124 122 121 120
28 27 28 25 23 24 20 20 25 24 26 28 29 30 32 35 38 35 37 38 37 36 38 40 39 41 44 51 55 60 69 75 83 92 98 105 112 116 117 121 124 125 123 124
25 25 24 22 18 18 19 19 23 21 25 25 25 28 31 33 34 33 33 32 31 30 32 33 34 35 40 45 51 55 60 62 68 78 88 97 104 114 116 117 122 127 127 128
25 22 20 18 16 14 14 15 19 20 21 21 23 26 28 30 32 30 30 27 24 25 27 29 30 33 38 43 47 51 53 56 64 70 81 94 104 110 116 119 119 124 127 129

GFSNGP_250_spd_072.txt.gz
Wind_Speed
89 94 100 107 107 104 101 99 97 95 96 94 92 91 88 84 81 77 74 70 67 63 59 55 52 50 48 48 45 43 44 41 38 36 34 29 29 31 28 29 34 34 33 31
86 94 99 105 107 107 104 101 99 97 97 100 99 96 94 91 87 84 81 77 74 70 66 62 59 54 51 45 48 48 46 46 41 38 38 34 31 32 29 29 30 34 36 35
84 91 100 105 110 110 109 107 104 104 98 98 101 101 100 97 94 91 88 85 81 77 73 69 66 62 58 55 47 47 50 46 48 34 35 37 32 32 32 31 30 32 34 36
77 88 95 99 106 111 111 109 109 106 103 103 101 103 104 103 100 97 93 91 88 84 80 77 72 69 66 63 58 53 47 46 46 49 41 33 29 35 35 32 30 32 32 35
69 80 86 97 103 108 111 111 111 109 107 104 103 103 103 103 103 101 98 95 92 89 86 83 80 76 74 72 67 61 56 50 50 48 47 40 32 38 40 36 33 34 35 33
67 72 80 87 99 105 109 113 113 112 111 110 108 107 102 101 101 100 99 98 96 94 89 87 85 83 81 79 75 70 64 59 56 57 51 53 45 49 42 42 39 36 36 36
70 72 75 81 93 101 108 110 112 114 115 114 113 112 106 107 105 104 102 101 99 97 96 93 90 87 86 85 82 78 74 68 65 66 58 61 62 50 45 45 43 39 38 37
73 74 74 76 81 91 99 107 111 116 116 116 116 116 114 113 111 108 107 105 104 102 99 97 95 93 91 89 88 86 82 78 71 70 72 69 62 60 55 50 48 45 42 39
74 76 76 76 77 80 85 96 107 113 115 119 119 119 118 118 117 116 114 112 110 107 105 103 100 97 96 93 92 90 88 85 81 76 75 73 70 67 62 59 53 51 49 44
66 69 73 77 80 82 85 87 92 101 111 116 118 122 125 124 123 121 120 119 118 115 112 109 106 104 102 99 97 95 95 91 87 84 81 78 76 71 64 63 59 57 55 51
58 61 64 68 72 79 85 89 91 94 98 106 115 121 122 123 126 128 127 125 123 122 121 119 117 112 108 107 103 101 99 97 93 91 89 82 80 79 72 70 66 62 60 59
51 51 53 58 65 69 73 79 85 90 95 98 103 110 116 121 124 128 129 130 130 128 126 126 125 123 118 114 112 108 105 104 100 95 94 89 86 84 79 77 73 68 66 62
48 49 53 55 56 58 60 65 71 76 83 90 97 101 104 108 114 119 123 126 128 129 129 130 128 128 126 124 119 115 111 109 106 101 97 94 91 89 87 84 79 75 73 66
39 43 48 50 52 54 57 59 62 66 71 76 82 90 98 106 109 110 109 111 115 120 124 127 129 132 132 130 128 123 119 116 112 108 103 99 98 93 93 91 87 83 80 73
39 44 43 44 47 48 49 50 56 62 66 70 75 80 84 90 95 97 97 101 105 106 108 112 121 130 132 134 134 131 127 124 122 115 111 106 103 100 95 97 93 90 87 83
37 41 48 53 57 53 50 51 53 54 58 63 65 66 68 71 74 77 82 89 95 99 102 104 106 112 123 131 132 135 133 128 129 125 118 113 109 105 101 100 97 96 92 90
34 38 41 45 48 50 50 50 53 54 56 56 59 62 65 68 72 73 75 80 84 88 91 95 99 104 109 115 126 132 130 132 131 130 128 123 116 111 108 104 102 100 98 98
30 32 38 40 40 43 46 47 48 51 52 53 53 57 60 61 62 62 65 69 73 76 79 85 90 96 101 105 108 115 127 129 129 130 130 129 125 119 114 109 108 104 104 103
28 30 33 37 39 40 40 41 44 49 49 52 52 52 54 55 56 58 60 63 67 72 72 73 78 84 91 95 98 103 108 119 127 126 126 130 131 126 122 116 113 108 109 110
25 28 30 31 33 36 39 39 40 41 44 48 49 51 52 51 52 53 55 57 61 65 66 69 72 74 79 85 89 93 95 101 111 121 123 125 130 131 128 124 119 115 112 113
24 27 28 29 31 34 37 39 40 39 39 41 43 45 47 48 48 49 52 53 57 59 62 64 66 67 71 76 80 82 84 88 97 108 118 124 128 131 132 129 125 121 118 115
26 26 27 28 29 31 32 33 36 37 40 39 40 41 42 45 46 46 49 49 52 56 57 60 61 62 63 66 69 73 75 78 84 96 106 116 124 130 133 131 129 126 124 121
28 28 28 29 28 27 28 29 31 34 35 39 41 39 40 42 43 45 47 46 50 53 52 51 54 56 57 59 62 64 67 71 76 87 98 105 114 123 129 131 130 129 128 126
27 26 25 25 25 25 26 26 29 31 33 34 35 36 36 37 40 42 44 42 47 48 47 46 49 49 51 52 53 57 61 65 69 72 80 92 98 106 118 122 129 130 129 128
27 26 25 23 22 20 22 26 26 27 30 30 31 33 32 34 34 38 40 40 42 43 42 41 41 42 44 45 46 48 53 57 60 63 70 78 89 96 108 120 123 128 128 127
24 23 23 17 19 18 20 21 23 24 25 24 28 29 30 30 32 36 36 37 38 37 36 35 34 36 38 40 40 41 44 49 54 57 62 70 79 89 96 108 121 124 126 128
22 19 21 17 16 16 18 20 20 18 20 20 25 29 28 27 30 34 33 35 34 32 30 30 31 31 33 37 38 37 40 42 47 51 55 62 69 77 86 91 103 117 122 124

GFSNGP_250_spd_075.txt.gz
Wind_Speed
89 89 90 87 89 92 96 99 105 111 101 92 89 87 84 80 77 73 73 70 68 66 64 62 58 59 48 48 50 48 48 48 44 44 41 36 34 34 29 33 30 31 33 33
91 92 92 91 91 90 93 100 106 111 99 85 90 96 92 88 84 79 77 74 71 69 66 65 60 61 55 50 47 44 47 51 49 48 43 38 37 34 32 32 33 29 29 34
96 99 98 96 95 95 98 101 110 114 101 99 98 99 99 96 91 88 84 80 76 74 71 68 68 65 63 60 58 56 54 52 50 48 46 37 36 36 38 35 35 34 31 29
84 87 89 92 92 96 99 101 107 111 103 103 101 102 105 102 99 95 91 86 83 79 77 75 72 69 66 64 61 59 56 53 53 51 49 47 35 37 40 40 37 37 34 32
75 75 81 79 84 92 95 100 107 109 111 110 108 109 105 106 105 102 98 94 90 87 84 81 78 75 72 70 66 63 59 56 53 49 52 50 45 36 40 42 39 37 35 32
71 74 78 80 78 83 93 98 103 106 113 114 113 114 109 103 104 105 104 101 99 96 93 89 86 83 80 77 73 71 68 64 59 52 49 52 53 45 37 38 37 38 38 35
70 73 77 73 83 86 91 95 97 104 109 115 119 118 107 109 108 108 109 108 105 103 100 97 94 91 88 85 81 78 75 71 67 61 56 51 53 59 55 46 40 38 42 41
70 73 74 72 83 86 87 91 95 102 108 115 118 121 117 113 114 112 110 109 108 108 105 103 101 98 95 93 89 86 83 79 76 70 65 60 55 56 57 57 54 51 47 43
72 73 73 76 80 80 83 87 93 97 104 110 115 119 121 121 117 117 114 113 112 110 109 108 106 103 101 99 96 93 89 86 84 80 74 69 64 64 61 60 63 58 52 46
64 69 75 75 78 79 81 81 83 89 97 105 112 116 120 124 124 122 120 117 116 116 114 112 110 107 105 102 99 97 95 91 89 87 84 79 74 71 71 68 64 61 54 52
60 65 69 74 77 79 81 82 81 83 87 94 103 111 116 120 126 127 126 125 123 120 119 118 116 114 110 107 103 100 98 97 94 91 89 87 83 80 76 78 75 70 63 61
54 59 64 67 73 77 80 82 83 85 86 88 92 99 109 116 121 126 128 130 130 130 128 126 124 121 118 114 110 106 102 100 98 96 94 92 89 86 85 82 81 77 75 70
50 49 55 60 67 71 75 78 81 86 88 91 92 94 98 103 111 120 125 128 132 134 135 134 132 129 125 121 117 113 110 107 104 101 98 97 95 92 89 90 85 83 82 77
43 48 51 54 57 60 64 70 76 80 84 88 91 94 96 99 102 107 114 122 128 133 137 139 138 136 134 130 126 123 118 115 111 108 105 102 100 98 96 94 90 87 87 85
35 41 48 53 54 57 60 63 67 70 74 80 85 91 95 98 100 103 106 111 117 122 127 129 132 135 137 136 134 132 129 124 121 116 113 110 106 104 102 100 98 95 93 91
31 34 39 45 48 53 55 59 61 64 68 70 74 80 84 89 94 98 103 106 108 109 110 113 120 126 130 133 136 136 135 133 131 128 123 120 115 111 109 106 104 101 99 97
31 33 36 40 44 49 50 55 57 58 62 67 70 71 75 81 85 88 92 96 98 101 104 106 109 111 116 123 129 132 134 135 136 134 131 129 126 121 117 114 111 108 105 104
29 32 36 39 40 43 47 51 55 59 62 64 65 67 71 74 76 77 80 84 88 92 94 97 99 103 107 111 113 117 123 129 133 134 135 136 134 130 128 123 119 115 112 110
28 30 33 36 39 42 46 48 51 53 55 57 59 61 62 64 64 67 70 72 76 79 81 85 88 89 90 96 103 107 110 113 121 127 131 134 136 135 132 131 127 124 120 117
28 30 33 34 36 39 43 46 50 52 53 55 57 57 59 60 60 60 60 61 64 69 70 73 76 79 84 88 88 91 98 106 109 113 119 127 132 134 134 133 133 130 128 124
29 30 31 33 36 38 40 43 45 47 49 51 54 54 56 56 56 55 54 54 58 60 59 64 67 72 75 78 78 81 87 92 98 103 109 113 119 125 130 132 132 135 133 129
31 30 31 32 34 35 36 40 41 42 44 48 49 51 52 52 53 51 52 54 52 54 52 56 59 62 66 69 71 75 78 81 85 90 96 102 107 111 116 122 128 131 132 131
31 32 33 33 33 34 33 34 37 39 41 45 46 45 42 46 49 46 47 49 49 48 48 51 53 55 58 61 63 65 69 71 73 77 84 89 94 98 105 109 113 120 127 132
32 31 31 32 32 33 33 32 33 35 38 41 43 42 42 43 41 40 42 46 43 40 44 45 46 49 51 52 54 57 59 60 63 66 73 79 83 87 91 96 103 109 115 126
32 32 32 29 28 27 27 30 32 33 36 38 34 31 34 38 39 38 39 38 35 38 40 40 42 42 43 44 46 47 49 52 55 59 64 68 74 77 79 82 91 99 107 114
31 30 30 26 23 23 26 28 28 28 31 32 29 32 32 32 34 34 32 32 34 36 37 37 36 36 38 39 40 42 44 46 48 52 56 60 66 69 71 73 80 88 95 100
29 27 24 23 19 19 21 22 21 21 23 24 26 29 30 31 28 26 27 29 30 31 33 33 31 32 33 35 37 38 38 40 41 42 47 53 57 61 64 67 72 78 83 87

GFSNGP_250_spd_078.txt.gz
Wind_Speed
90 88 84 83 84 87 86 83 96 108 103 95 90 84 81 79 74 75 76 76 74 72 71 73 67 66 54 49 51 54 36 28 24 28 40 30 38 39 34 34 33 31 30 30
87 88 86 89 90 90 84 88 100 103 105 96 93 89 83 84 79 77 76 76 75 75 78 77 73 71 61 49 55 59 55 58 42 48 38 42 50 43 39 35 35 35 32 31
91 93 90 90 91 88 82 83 102 103 102 101 98 94 88 86 88 84 81 79 77 74 73 74 74 69 66 67 60 58 57 58 56 57 61 48 37 38 40 39 38 36 38 35
92 94 91 85 93 89 89 99 103 97 96 93 97 98 95 92 94 92 89 85 81 79 76 75 74 75 72 75 63 54 57 60 63 61 60 57 58 45 50 43 39 41 39 38
95 94 92 93 91 95 98 104 98 95 95 96 93 104 104 102 101 98 95 92 87 85 81 79 78 80 79 81 81 73 72 63 60 60 58 56 58 51 43 42 44 44 44 41
98 99 100 99 96 94 99 101 94 96 98 94 98 105 106 103 103 102 99 97 95 92 89 85 83 82 83 83 84 85 80 80 73 67 66 63 61 53 55 49 45 42 44 45
79 84 93 96 99 103 102 100 97 101 98 97 100 103 96 96 106 110 108 103 101 100 97 94 91 88 87 84 83 82 76 83 77 71 70 68 62 55 51 54 53 47 45 43
67 74 82 79 85 95 98 102 107 107 102 102 104 105 101 104 109 110 112 110 108 104 104 102 100 97 94 92 89 88 85 84 80 76 73 69 64 59 55 52 55 50 41 42
63 68 71 70 79 87 90 91 94 96 99 101 104 105 102 106 107 112 115 116 114 112 110 108 107 105 103 100 98 96 93 90 88 85 81 76 72 67 62 57 53 59 60 54
61 65 68 71 77 86 87 85 85 84 86 91 95 96 98 104 109 110 112 116 118 118 115 113 111 111 110 108 105 103 101 99 96 93 89 85 80 75 71 66 61 59 61 65
56 61 66 71 74 80 84 85 90 90 89 89 90 91 91 94 102 108 113 115 118 122 122 120 118 116 115 114 112 111 109 107 104 101 97 93 89 84 79 76 71 67 66 64
50 58 62 68 73 79 83 85 86 89 92 95 96 95 94 93 96 104 110 114 119 122 125 126 125 123 121 119 117 116 114 113 110 108 105 101 97 93 88 84 81 76 72 72
43 51 57 63 67 74 83 87 88 89 91 92 94 95 97 97 99 101 104 109 118 123 126 129 130 130 128 125 123 121 118 116 115 112 110 107 103 99 96 92 88 85 83 80
34 41 47 57 63 71 74 79 84 88 90 92 92 93 95 96 98 101 103 108 113 118 125 130 133 135 135 133 130 128 125 123 119 116 114 110 107 104 101 98 94 91 89 89
30 32 40 47 53 62 67 73 77 82 86 91 94 95 95 97 98 99 100 103 107 113 120 125 132 136 138 138 138 135 132 128 125 123 119 116 112 109 106 102 99 97 96 94
25 29 33 39 45 50 57 62 70 77 81 85 88 90 94 97 98 99 99 102 104 106 109 115 124 131 136 140 141 140 137 134 132 129 126 123 119 116 113 108 104 101 99 99
28 27 29 33 40 46 52 55 60 68 73 78 82 86 90 93 94 95 98 102 104 106 105 108 112 119 126 131 135 138 139 139 138 136 134 130 127 124 120 116 111 109 105 104
28 29 30 32 35 39 43 48 53 56 60 64 68 75 81 86 88 90 92 94 95 99 103 105 107 109 113 118 124 128 132 135 138 139 139 138 135 131 128 123 120 117 113 111
29 30 31 32 34 36 40 45 48 52 57 61 64 66 68 74 79 81 84 86 87 88 91 92 97 101 106 109 110 112 117 122 128 132 134 134 134 134 133 132 129 125 123 120
32 31 31 32 34 36 38 42 44 47 51 54 56 59 63 67 71 74 75 75 77 81 83 83 85 87 90 92 95 99 102 106 111 115 119 122 128 134 134 133 131 130 129 128
32 33 31 32 33 37 39 40 43 46 51 48 54 53 56 59 61 65 69 70 69 73 76 75 77 78 80 81 83 83 85 90 95 99 102 104 108 113 120 127 130 132 133 132
31 32 31 31 32 34 37 40 42 45 47 48 52 51 52 56 58 56 58 61 63 66 66 64 68 70 70 71 72 74 76 79 78 79 82 89 95 101 106 110 115 120 126 130
32 31 31 30 31 31 33 35 38 42 44 46 48 50 50 54 52 46 49 54 56 58 55 55 59 60 60 56 63 68 67 68 69 69 71 74 79 85 92 99 104 109 115 120
34 31 30 29 29 28 29 32 34 35 38 41 45 46 47 50 43 34 34 45 47 46 47 49 49 49 49 54 55 56 57 59 60 62 64 67 70 74 79 85 93 99 104 108
36 33 31 27 25 26 28 28 28 30 32 38 37 41 41 37 35 30 36 39 41 40 36 39 41 42 45 44 45 47 50 51 54 56 58 62 64 66 69 75 80 86 92 97
34 33 30 26 23 22 22 23 23 23 26 29 32 32 27 26 29 34 35 36 36 36 32 37 38 38 36 38 39 40 42 43 46 48 51 54 57 60 65 68 72 78 82 86
34 33 29 26 23 20 18 19 21 20 22 24 26 26 24 25 26 26 28 31 30 29 31 34 31 31 32 33 33 34 35 37 40 42 44 46 49 53 57 61 66 72 76 79

GFSNGP_250_spd_084.txt.gz
Wind_Speed
89 87 87 85 82 80 80 86 90 84 82 81 79 78 77 74 71 74 79 77 74 72 66 60 54 51 42 38 40 36 40 40 36 37 32 30 30 26 20 17 22 32 27 24
91 89 86 90 86 84 84 89 88 86 86 83 80 77 78 79 77 72 72 74 76 74 72 71 69 64 55 52 50 45 46 40 34 48 42 39 38 30 28 29 21 27 33 36
90 91 92 92 90 89 89 87 83 84 84 86 86 84 83 82 81 81 78 77 78 78 79 73 78 71 63 61 59 60 56 54 54 56 51 45 42 34 33 36 36 26 28 35
90 92 94 95 94 94 91 92 85 81 81 83 85 88 89 87 86 86 85 83 81 84 85 85 87 79 67 67 65 64 59 55 55 53 51 47 48 42 39 36 35 33 28 36
87 91 94 96 97 93 92 92 89 86 83 81 81 85 89 92 91 90 88 87 88 91 93 92 92 88 79 75 67 70 68 59 59 60 57 55 57 52 50 48 41 46 43 39
84 87 93 94 96 97 95 95 92 90 87 86 87 88 93 94 96 97 96 94 93 93 95 99 97 96 93 83 81 73 72 73 68 67 67 62 59 60 65 60 51 53 53 55
85 86 86 89 94 97 94 96 97 96 94 92 90 90 90 92 93 96 100 101 98 97 98 98 99 101 104 103 100 96 84 81 77 76 76 74 69 65 75 69 63 61 63 64
84 92 87 89 92 96 95 97 99 100 99 97 97 98 97 98 98 96 95 94 100 104 104 103 101 101 100 99 101 101 102 100 94 87 82 83 79 80 78 80 77 73 71 70
68 78 87 97 98 97 96 97 99 99 100 103 105 104 102 101 101 99 97 97 98 98 102 106 106 104 102 101 101 99 102 105 106 104 98 93 94 89 89 86 83 80 80 80
47 55 67 81 92 100 103 101 100 102 102 104 103 103 104 104 103 103 103 102 100 99 98 99 103 107 109 107 105 104 103 103 106 108 108 104 97 97 87 90 89 90 89 84
35 46 55 63 74 87 98 104 107 105 103 102 104 105 104 103 104 107 106 106 106 104 103 103 104 106 109 111 111 109 108 107 106 105 107 108 111 111 105 93 92 89 86 86
25 33 45 56 64 73 81 89 97 102 105 107 106 105 105 106 107 109 107 108 110 110 109 107 106 107 107 109 111 114 114 113 112 111 109 109 110 112 115 116 106 97 96 82
26 30 35 43 57 65 71 78 83 89 94 99 103 105 108 109 108 112 112 112 113 114 112 112 111 110 110 110 111 114 116 117 118 117 116 115 114 114 114 115 117 116 105 105
28 32 36 42 47 53 64 71 75 80 83 87 90 94 99 104 110 113 114 113 115 117 116 114 113 114 115 115 114 115 115 118 121 124 124 122 121 120 118 117 116 117 121 116
27 31 34 41 46 46 54 63 72 74 76 81 82 83 88 93 98 104 110 115 118 119 116 116 116 115 117 118 120 120 119 120 122 125 128 130 129 127 126 125 123 121 119 124
26 25 32 39 43 43 47 55 59 66 69 71 78 81 82 84 89 93 99 104 108 112 115 118 119 118 118 118 119 120 122 123 125 127 128 131 134 135 134 133 131 130 128 127
37 33 34 36 38 41 40 45 52 55 61 64 66 76 79 79 82 86 90 94 98 102 103 106 110 111 113 117 121 124 124 124 125 127 129 132 133 136 139 139 138 137 136 136
41 40 35 33 35 37 37 39 46 50 52 56 60 63 69 74 80 83 85 87 90 95 97 98 101 102 103 103 105 108 112 116 120 122 125 128 131 134 135 136 140 143 144 143
40 35 33 30 30 33 37 37 40 45 50 53 55 57 61 64 70 75 79 81 86 92 94 93 97 98 100 101 103 104 105 106 107 111 115 118 122 127 130 133 136 140 144 147
37 33 31 28 28 30 32 36 37 41 45 50 48 48 54 61 65 67 71 74 80 87 88 91 92 94 96 97 100 103 105 106 107 108 109 110 112 115 118 122 128 134 137 139
40 34 30 28 29 32 31 31 35 37 40 46 47 49 56 59 61 64 66 67 71 75 80 84 87 89 91 92 94 96 98 100 103 105 105 105 105 106 108 111 116 120 124 129
39 36 33 31 30 30 32 34 34 37 39 42 45 49 54 54 51 53 57 63 68 70 72 73 76 79 80 82 84 87 89 90 90 92 93 96 98 99 101 105 103 103 109 116
38 35 33 32 30 30 31 34 36 37 39 40 42 45 47 48 49 52 58 61 63 65 65 67 71 70 68 72 76 77 80 80 81 81 80 82 83 85 77 80 89 93 99 103
37 35 33 31 29 29 31 32 33 34 36 38 39 40 40 43 45 47 50 54 56 56 58 60 61 61 62 66 68 69 70 71 71 73 75 74 68 70 74 73 73 75 78 81
35 34 33 29 26 27 29 26 26 27 30 31 34 35 35 37 39 41 42 45 47 47 49 51 55 55 56 59 60 62 64 67 67 63 58 62 65 65 65 65 65 66 66 68
38 36 36 35 32 27 27 26 24 25 25 25 27 27 27 30 32 33 36 39 40 42 42 44 46 48 50 52 56 59 59 55 42 41 53 54 54 55 56 58 59 59 58 59
37 35 34 33 31 25 23 24 22 21 22 21 22 22 22 23 24 26 28 30 31 33 35 37 39 42 44 47 50 50 46 38 39 45 45 44 45 47 48 49 51 53 55 55

GFSNGP_250_spd_087.txt.gz
Wind_Speed
94 90 87 87 87 87 86 85 82 79 78 76 75 75 75 72 73 72 74 74 75 72 68 68 64 58 52 50 45 44 48 48 42 36 35 34 31 25 26 25 29 26 25 21
95 91 89 88 87 86 86 85 83 81 80 79 76 79 77 78 78 78 73 73 76 79 78 73 72 65 59 59 54 50 49 49 47 48 40 42 42 41 31 29 27 24 22 20
96 93 94 90 88 87 85 84 87 88 86 85 85 85 84 81 81 81 80 77 74 79 83 82 78 70 66 67 60 58 57 52 49 51 47 47 43 44 40 38 34 38 31 25
93 93 94 92 92 90 88 87 84 83 86 88 87 85 86 86 84 84 83 82 82 79 79 85 83 84 76 73 67 65 65 63 57 56 56 49 48 49 50 47 44 43 38 35
87 92 91 93 94 92 92 90 89 86 87 87 87 89 91 92 91 89 89 88 86 83 80 77 83 87 83 81 75 74 73 73 64 62 62 57 57 59 57 56 55 53 50 45
83 86 92 91 94 96 96 93 90 90 91 89 89 89 92 96 96 95 95 93 92 89 87 85 82 82 87 90 85 83 83 80 75 66 73 72 65 69 66 67 65 57 55 47
82 82 85 88 92 95 98 94 95 95 95 93 93 93 94 95 97 99 100 100 98 96 94 92 90 87 87 91 95 93 91 91 83 81 80 76 74 68 65 67 67 63 62 56
88 85 84 85 89 88 95 98 98 99 98 98 97 96 97 98 99 100 102 104 104 101 100 98 97 97 95 93 94 99 99 98 89 85 86 84 81 71 67 70 70 69 69 70
78 92 93 91 88 89 90 91 99 98 101 102 101 102 103 103 102 102 101 103 104 105 103 102 100 99 100 101 99 99 100 100 101 95 90 87 82 80 74 73 72 75 75 79
58 72 83 90 93 92 90 91 93 100 103 101 104 108 108 107 107 108 107 105 105 107 108 107 107 107 105 103 105 103 107 107 107 107 101 98 91 85 82 82 78 78 84 80
39 49 62 77 88 95 98 98 97 96 100 104 107 108 109 110 110 111 111 110 109 107 107 107 107 108 109 110 109 108 109 111 115 114 110 103 99 100 97 96 94 89 82 86
25 36 47 56 66 75 88 98 103 104 104 104 108 109 110 111 113 114 115 114 112 113 112 109 107 108 108 109 111 113 114 113 116 120 119 117 114 109 108 106 106 107 104 95
24 31 36 47 56 64 72 78 87 98 104 107 110 111 115 116 115 115 116 118 119 118 115 112 111 112 112 111 110 111 113 117 120 121 122 128 129 126 123 120 119 121 117 116
23 27 36 43 49 55 62 70 78 84 88 93 101 108 114 116 116 117 119 120 120 120 120 120 119 118 117 115 115 114 113 113 115 119 123 125 125 124 123 121 119 118 120 126
28 29 37 42 49 52 57 62 68 70 73 79 86 92 98 106 113 117 119 121 121 122 123 123 122 122 122 121 121 119 118 118 117 117 119 121 124 127 127 126 125 124 123 123
36 36 37 37 39 48 50 56 62 67 66 68 69 78 86 90 95 102 110 116 119 121 123 122 122 124 125 125 124 122 122 122 123 122 121 122 123 124 126 128 129 131 130 130
43 41 36 37 39 42 46 52 55 55 59 62 65 67 71 80 84 88 94 100 107 112 118 122 124 124 124 124 124 125 124 124 125 126 127 127 127 127 126 126 129 132 135 137
44 39 38 39 40 42 44 45 46 49 49 50 56 60 60 65 73 80 86 92 95 98 103 107 113 118 121 124 127 127 125 124 123 123 124 126 129 130 131 131 132 133 135 137
42 40 40 39 38 37 40 43 44 46 48 47 47 50 54 57 65 71 76 79 83 88 94 98 101 104 107 110 114 118 121 124 125 126 125 125 125 126 128 130 132 136 138 138
41 41 39 37 36 34 35 39 41 42 44 46 45 46 50 54 58 64 69 71 75 79 83 87 92 96 99 102 104 107 110 113 115 117 118 119 122 123 125 126 128 130 132 135
43 42 37 33 30 29 29 33 38 40 41 43 45 46 47 50 53 51 56 63 69 73 77 80 81 85 87 91 96 100 103 105 107 108 109 111 113 115 117 119 120 122 123 125
42 39 36 35 32 30 31 33 36 39 41 42 42 45 48 48 48 49 53 58 63 67 72 73 72 75 78 82 85 89 91 93 96 98 100 102 105 108 109 110 111 113 114 116
41 39 36 35 33 31 31 33 37 38 39 40 42 43 44 49 48 49 52 55 57 58 60 61 66 69 71 74 75 75 77 81 83 85 87 90 93 95 96 99 101 102 103 108
40 38 37 38 35 32 30 31 35 34 36 38 37 39 40 42 42 46 49 51 53 54 56 58 60 63 64 67 67 67 71 72 73 74 75 76 79 81 83 86 89 93 86 84
39 38 35 34 31 28 27 29 30 27 28 30 31 31 34 35 34 38 44 46 48 49 52 55 57 58 58 59 60 59 61 64 65 66 67 69 72 74 77 78 72 72 74 75
39 38 37 36 34 32 29 28 29 25 23 23 25 26 28 29 30 32 35 39 42 45 45 47 52 53 54 54 55 55 56 57 58 58 60 64 66 66 62 61 63 64 65 64
38 38 37 37 36 34 29 25 25 26 23 21 22 23 23 25 27 29 30 32 36 39 41 43 44 46 46 46 48 49 49 50 53 58 59 56 54 54 53 53 54 55 54 56

GFSNGP_250_spd_093.txt.gz
Wind_Speed
90 90 91 91 89 87 87 88 88 85 84 82 82 81 79 78 79 83 85 82 80 77 75 74 72 67 62 60 55 53 46 40 39 43 44 41 34 35 33 32 30 25 24 22
93 91 91 91 89 90 87 86 87 88 86 84 82 83 83 80 79 77 78 81 86 87 83 79 74 72 69 68 67 62 58 53 50 47 41 39 38 39 40 38 35 30 29 25
95 94 92 93 92 89 87 86 86 88 87 87 87 86 86 84 84 82 79 77 76 76 79 82 82 79 74 70 69 65 59 62 63 58 58 53 50 48 45 44 42 36 33 33
89 93 92 91 92 90 88 88 88 87 86 88 87 87 87 88 88 88 87 84 81 78 75 74 77 80 81 76 71 70 70 63 68 66 66 65 57 57 59 53 48 47 41 41
85 87 91 92 93 92 91 90 90 89 89 89 89 88 87 88 89 90 89 88 88 85 82 80 76 76 80 80 81 78 79 75 71 66 70 69 67 62 62 61 58 55 52 47
79 83 87 89 91 93 94 93 93 93 92 90 89 90 90 88 88 89 92 92 91 90 89 85 83 81 78 77 79 80 81 81 77 78 77 75 73 68 69 65 64 61 60 59
77 80 84 87 89 90 90 93 94 94 94 94 94 94 92 90 90 90 91 93 93 93 91 90 89 87 85 83 81 80 84 84 83 84 83 80 77 75 72 71 72 71 70 68
75 76 76 79 84 88 89 91 93 95 96 95 95 96 96 95 93 93 93 94 94 94 93 91 91 91 90 89 87 85 83 84 89 89 86 84 83 79 80 77 74 77 74 72
71 72 73 74 76 79 85 90 93 95 96 97 98 99 98 98 97 97 97 97 98 97 95 94 94 94 95 95 94 93 92 91 89 91 95 92 92 89 90 89 86 81 77 76
65 74 76 74 73 74 76 81 86 93 97 98 98 99 101 102 103 102 102 101 100 101 101 101 100 99 98 98 100 98 97 96 96 96 95 95 98 99 96 98 92 92 86 82
37 47 58 69 75 79 79 79 81 83 88 93 96 99 101 104 106 106 106 106 104 104 105 105 105 105 104 103 103 102 101 102 102 101 101 100 100 99 100 103 104 101 94 92
22 28 36 46 56 66 74 81 85 85 85 88 90 93 98 102 104 106 109 111 110 110 110 110 110 109 109 109 108 107 107 106 105 105 105 105 105 105 103 102 102 103 108 104
16 20 25 32 41 46 54 66 77 85 91 94 94 93 93 96 101 105 109 112 115 115 115 115 115 115 115 114 113 112 111 111 111 110 109 109 108 108 107 106 105 105 105 105
19 23 27 30 32 36 43 52 59 65 77 87 93 98 100 101 100 101 104 110 114 116 118 119 118 119 120 119 119 118 116 115 115 114 114 114 113 112 112 111 110 110 109 108
27 29 31 33 38 42 45 47 50 54 63 71 77 86 95 101 105 107 107 107 110 114 116 118 119 119 120 122 124 123 122 121 120 119 118 117 117 117 117 117 116 116 115 114
31 34 36 38 41 45 48 50 53 55 58 62 67 74 82 88 95 100 106 110 112 114 115 115 116 119 121 120 121 123 125 126 125 125 124 124 122 122 121 120 120 120 119 119
35 36 39 41 42 41 41 46 50 54 59 64 67 69 72 76 82 88 93 97 99 104 108 113 116 116 117 118 118 122 124 124 125 127 127 128 128 127 126 126 124 123 123 122
41 41 40 40 39 40 43 46 48 50 54 57 61 65 69 71 74 78 82 87 89 93 97 101 102 105 110 113 115 117 119 121 123 126 127 126 127 129 130 131 129 128 127 126
44 42 40 39 41 42 44 46 47 47 49 51 55 59 62 66 69 71 73 75 77 82 90 93 92 94 98 101 103 105 108 112 117 120 122 124 126 128 129 129 129 130 131 131
42 40 40 40 41 43 45 45 45 45 46 47 49 51 53 56 60 63 65 67 68 71 77 81 83 85 88 90 93 96 98 99 102 106 111 116 122 125 125 125 126 126 127 128
40 40 41 42 43 43 43 43 43 44 45 45 46 47 48 51 53 53 54 55 58 61 65 69 70 72 80 81 82 85 89 92 93 95 98 101 105 110 114 117 120 121 122 122
43 42 42 43 43 43 42 42 43 43 43 43 44 45 46 47 47 48 49 50 51 54 56 61 61 64 70 71 72 75 79 84 87 88 88 89 91 94 99 102 104 106 108 110
41 40 39 39 39 41 41 42 43 44 43 43 42 42 42 42 41 43 45 46 46 48 50 53 55 58 59 61 62 65 67 70 74 77 79 81 84 86 87 90 93 96 98 99
34 34 34 35 37 39 41 43 43 41 40 38 38 38 38 40 40 40 42 43 44 46 49 50 52 53 55 52 55 57 58 61 65 68 65 68 73 76 78 80 83 85 88 90
29 29 31 33 35 38 42 44 43 40 37 35 35 34 34 34 34 33 34 38 40 41 43 45 47 49 50 51 51 55 56 56 57 59 57 61 64 67 69 70 72 75 77 79
29 31 31 30 33 36 39 37 35 32 30 29 29 29 28 27 27 26 28 32 36 36 36 38 40 42 45 47 49 51 53 52 51 48 47 51 55 58 61 62 65 67 69 72
30 28 28 28 30 33 35 35 32 28 26 24 24 25 24 23 23 23 24 27 30 31 31 32 33 35 37 39 41 46 44 47 47 47 47 49 51 55 57 58 59 60 62 63

GFSNGP_250_spd_096.txt.gz
Wind_Speed
93 95 94 94 93 93 94 96 93 94 93 90 94 100 99 98 94 89 78 71 71 72 72 69 64 63 62 61 58 57 51 51 47 44 36 35 36 35 33 31 31 29 28 26
87 93 95 97 95 95 94 94 97 94 93 91 90 93 96 101 98 95 92 89 86 83 81 77 74 72 72 70 67 61 55 54 54 50 40 42 41 39 41 39 39 38 37 32
87 91 96 97 98 96 92 93 94 97 94 94 92 90 93 92 93 97 97 95 90 89 85 81 76 78 74 74 71 70 65 60 61 58 54 49 54 47 44 42 39 39 41 36
85 90 94 99 96 96 94 93 93 92 94 95 95 93 91 93 93 91 91 91 91 90 92 91 83 79 79 78 78 78 74 73 70 67 65 60 57 58 53 50 46 43 41 41
79 87 94 96 97 97 97 94 93 93 94 94 96 96 95 94 94 92 90 89 89 87 85 84 86 85 82 79 79 80 78 79 75 72 72 71 68 66 62 60 58 57 52 52
78 80 87 89 94 97 98 100 98 95 94 94 93 95 95 95 94 95 94 92 92 90 88 86 83 84 89 92 93 93 91 87 84 80 78 72 66 69 69 69 69 69 67 65
76 76 78 85 90 94 97 98 96 98 97 97 97 95 94 94 95 95 97 96 96 94 93 92 90 87 85 84 83 81 78 80 82 84 81 78 75 74 68 70 71 74 70 69
78 77 74 76 84 88 89 93 96 97 99 98 98 97 98 96 95 95 96 97 98 98 98 96 94 93 92 90 88 85 85 81 81 83 86 87 87 82 80 73 73 69 73 74
75 75 75 74 74 79 85 87 91 96 97 99 100 99 98 97 97 98 97 97 98 98 99 99 99 98 97 96 95 94 92 91 89 87 86 86 88 91 92 87 88 81 75 74
69 71 72 71 73 73 76 81 86 89 92 96 98 102 101 100 100 100 99 99 99 98 99 100 101 102 102 102 101 100 100 98 97 96 93 92 89 89 88 92 88 88 87 81
53 65 70 72 72 72 73 76 79 83 88 92 93 95 100 104 105 104 103 103 102 102 102 102 103 103 103 104 104 104 104 104 103 102 100 99 98 96 94 94 94 95 96 95
26 36 49 62 72 75 75 76 79 82 83 85 90 96 99 100 102 104 106 108 108 106 106 107 107 108 107 107 107 107 106 107 107 107 106 105 104 103 103 101 100 99 98 100
13 17 24 34 45 54 64 74 81 82 83 85 86 89 93 98 103 106 107 109 110 111 112 113 113 111 109 110 111 111 112 111 111 110 109 108 109 109 108 107 107 106 105 105
18 20 21 24 28 33 41 51 60 68 78 87 93 93 93 95 97 101 105 109 111 111 112 114 115 117 118 117 117 115 114 115 115 114 113 113 113 113 112 112 111 112 112 111
23 24 26 28 31 36 38 40 44 51 60 68 77 85 92 97 101 102 103 103 105 109 112 115 118 117 117 119 121 122 122 120 119 118 118 118 117 117 117 117 117 116 116 115
28 29 32 34 37 39 42 47 50 53 54 56 61 66 72 79 87 93 98 104 108 110 111 111 113 115 119 120 121 122 124 125 126 125 124 122 122 122 121 120 119 120 120 119
38 38 41 43 44 44 45 47 49 51 57 60 62 65 68 71 74 78 84 89 94 100 105 109 114 115 116 117 119 121 122 122 123 124 127 129 127 126 127 126 125 124 123 123
43 46 47 47 48 48 48 48 48 49 50 54 59 63 66 69 72 75 79 81 85 89 92 96 101 103 108 112 116 117 118 119 120 122 124 125 126 128 131 131 130 129 129 130
49 48 48 48 48 48 48 48 49 50 52 54 56 60 64 68 70 73 75 78 80 83 87 89 92 93 95 97 101 104 108 111 114 116 117 119 121 125 127 129 129 129 130 131
45 45 46 48 49 47 47 48 49 49 51 53 56 57 59 61 64 67 70 72 74 75 76 80 84 88 90 90 93 95 96 97 99 101 104 108 111 115 120 124 127 128 129 130
45 46 47 47 47 46 45 45 47 48 49 51 52 53 55 58 59 62 65 68 70 70 70 71 74 76 77 77 81 84 87 90 91 92 93 94 95 98 102 107 112 116 121 125
44 44 43 43 42 41 41 42 45 47 49 50 50 51 52 53 54 55 58 61 62 61 63 65 67 67 68 69 71 74 77 78 82 86 84 84 85 87 89 90 93 98 103 107
38 37 37 36 34 35 38 40 44 47 47 45 45 45 46 48 49 50 52 53 54 54 55 57 58 60 63 63 63 65 65 67 73 72 73 75 77 77 77 78 81 83 86 89
39 34 32 31 32 33 37 40 43 42 39 38 38 38 39 40 40 42 44 45 46 48 50 51 52 52 54 56 58 59 60 61 65 65 65 67 68 68 67 69 71 72 75 78
39 33 29 27 28 29 32 36 41 40 38 37 37 36 35 34 34 36 37 39 41 43 46 47 48 48 51 53 54 55 56 57 57 59 60 61 63 59 60 65 66 67 68 70
41 34 29 26 26 26 30 35 37 35 33 32 31 31 31 32 32 31 33 34 35 36 40 42 43 42 43 46 48 49 51 52 54 56 56 56 55 56 58 58 57 59 62 64
49 42 32 30 27 26 29 32 34 34 31 28 26 27 28 27 27 26 26 26 29 31 33 35 37 37 37 38 41 43 45 45 48 49 51 50 49 51 52 52 52 54 57 59

GFSNGP_250_spd_102.txt.gz
Wind_Speed
88 81 86 86 95 97 101 102 108 113 112 100 99 87 82 91 81 75 77 77 78 73 68 68 68 64 59 56 47 48 46 43 43 39 39 36 34 32 31 32 30 26 25 25
76 80 81 81 88 95 101 103 107 106 103 98 89 76 99 81 87 80 76 79 82 79 79 68 66 66 65 59 54 53 54 54 53 49 47 45 42 42 37 38 35 35 29 27
72 81 80 82 88 97 101 99 103 112 105 99 90 84 72 103 93 80 78 77 80 85 84 79 73 71 69 65 65 59 58 62 61 54 57 52 48 47 47 46 44 44 39 42
65 67 75 79 82 87 94 99 113 110 102 94 95 98 96 75 101 98 86 82 83 84 84 85 85 83 77 67 63 64 64 66 68 67 65 60 57 57 53 54 53 51 50 49
62 61 60 77 84 89 95 101 107 102 99 96 99 102 105 102 62 105 104 94 87 84 87 87 88 86 82 81 80 76 70 69 67 72 71 71 67 62 59 57 57 59 59 55
68 66 63 62 74 83 88 91 96 94 106 104 107 111 100 105 108 89 106 112 103 98 93 88 89 91 89 87 90 85 76 74 76 70 71 71 69 67 64 66 69 68 68 66
68 70 70 71 69 70 82 86 85 101 110 108 109 113 111 98 103 103 101 113 115 112 106 104 100 95 90 92 93 93 92 87 84 82 81 75 76 75 76 77 79 81 80 77
77 82 80 84 78 72 77 84 90 96 103 109 112 114 112 115 113 111 106 91 118 119 119 115 110 108 106 103 99 97 95 94 94 90 88 89 89 83 84 85 86 83 85 85
81 76 74 84 80 87 81 86 88 97 100 106 111 114 111 110 113 115 114 117 117 109 119 123 119 120 119 116 110 106 103 101 100 99 96 92 93 92 88 87 80 81 86 89
78 80 82 78 74 82 89 88 86 91 93 100 106 109 110 111 111 111 115 117 116 116 116 116 121 124 126 126 124 121 116 110 108 107 105 104 108 107 106 107 108 104 102 98
59 72 84 87 86 86 86 86 85 78 82 91 97 103 108 110 113 113 112 113 115 118 119 119 119 121 121 123 127 126 124 122 121 119 117 116 116 116 115 111 109 106 107 102
31 45 58 69 81 89 88 91 83 78 74 77 87 90 98 107 111 114 114 113 113 114 115 115 117 119 121 121 123 124 125 126 125 123 120 118 116 114 113 116 112 113 108 106
12 20 30 41 52 65 75 81 85 82 79 78 79 82 88 92 100 109 113 116 117 115 114 115 116 117 118 119 121 122 122 124 125 124 125 123 121 120 119 119 117 116 113 112
6 8 11 17 27 40 52 63 69 72 77 79 80 81 82 86 89 93 100 104 110 115 117 119 120 121 121 121 121 121 122 122 123 123 123 123 124 123 123 123 121 120 120 120
15 15 14 13 14 17 23 34 48 61 69 76 79 81 82 84 86 89 92 95 98 103 109 114 119 122 123 124 124 125 126 125 126 125 124 124 123 123 124 123 122 120 122 120
19 19 20 21 22 22 23 25 29 35 43 55 67 77 85 89 89 90 93 97 100 101 102 106 110 114 117 121 123 124 127 128 130 129 128 129 128 127 127 127 126 124 124 123
19 22 23 23 26 29 30 33 37 37 40 45 50 57 62 68 76 84 91 96 100 102 104 107 110 114 114 116 118 120 122 125 127 128 128 130 131 132 132 131 132 131 129 128
21 22 25 26 31 36 37 41 43 44 45 49 54 59 65 69 72 75 79 83 88 92 97 102 105 107 111 114 118 120 121 121 124 125 125 126 127 128 128 129 129 130 130 130
25 29 34 37 40 42 46 48 49 49 50 52 55 56 60 66 71 75 78 81 84 87 89 91 93 95 98 102 107 114 116 117 118 123 122 122 123 124 124 124 125 125 124 124
32 34 38 43 47 50 52 55 55 55 55 56 57 57 60 63 66 69 74 78 82 83 85 86 89 90 93 95 96 99 102 102 103 106 113 113 114 117 120 121 122 123 123 122
36 37 39 42 47 48 46 44 43 44 47 49 51 51 52 54 57 61 65 68 72 73 73 74 77 82 85 87 90 93 97 98 97 95 99 102 99 101 103 104 106 107 109 110
31 32 33 38 41 42 34 32 33 34 35 37 40 43 45 49 52 54 57 59 62 64 67 69 71 75 77 80 82 84 88 90 88 88 88 90 94 96 96 96 96 97 99 99
26 28 33 34 36 39 34 28 27 28 30 32 34 36 39 42 43 48 49 49 51 54 58 60 61 65 67 68 71 73 78 79 78 75 77 79 83 87 88 87 86 86 86 88
26 31 37 36 36 39 40 41 38 34 33 35 36 38 42 43 40 42 43 44 45 47 51 53 53 54 58 57 59 61 63 65 65 66 67 70 71 74 77 78 77 78 79 78
28 31 36 38 39 38 39 42 42 40 39 37 37 37 39 41 38 38 37 38 40 42 41 46 47 46 47 49 48 47 50 53 54 57 59 60 63 65 66 68 69 69 69 67
28 32 33 38 39 40 41 42 45 46 44 43 40 40 38 38 37 38 37 35 38 39 37 37 38 38 40 41 42 41 43 46 48 49 52 53 55 56 57 58 61 62 61 60
33 36 38 40 43 43 43 45 48 51 50 48 46 42 41 39 39 36 34 33 34 34 32 32 32 31 30 32 33 35 37 38 40 42 42 45 48 49 51 52 54 54 54 53

GFSNGP_250_spd_105.txt.gz
Wind_Speed
84 82 87 91 96 101 103 103 106 104 96 80 62 64 74 67 63 59 55 58 59 59 54 32 32 31 57 58 54 53 45 50 47 41 43 43 38 34 32 29 29 32 24 22
79 81 80 83 94 101 103 103 110 109 102 93 75 64 70 78 73 67 61 65 64 59 61 50 74 65 53 55 61 64 58 52 55 52 49 50 47 43 41 40 39 40 39 33
83 81 82 88 89 98 102 104 108 110 112 100 88 71 71 73 80 75 71 64 65 66 66 73 80 83 85 83 81 74 74 68 60 59 53 52 52 51 47 46 45 45 42 42
79 85 88 83 87 90 96 102 103 104 98 100 100 89 79 78 83 83 82 73 82 83 79 77 80 81 80 79 77 72 66 65 63 60 58 58 59 60 60 53 52 51 49 46
77 82 86 88 86 85 86 89 98 98 99 100 99 103 91 87 79 83 86 88 87 87 87 85 89 88 83 78 81 77 78 71 68 67 67 66 66 65 67 67 56 59 58 56
72 78 80 83 86 85 83 86 87 92 85 84 74 102 103 103 101 101 94 96 92 93 95 97 102 95 90 94 88 81 87 87 83 78 77 74 74 72 73 71 72 71 68 67
70 72 75 79 80 83 86 86 84 85 85 62 58 63 101 111 108 99 107 99 92 99 103 102 92 92 87 88 89 92 87 81 80 78 81 80 76 75 77 79 77 77 78 75
65 64 67 73 78 84 85 85 85 84 83 79 77 58 64 92 121 117 111 106 105 92 111 108 101 101 100 96 96 95 97 95 92 94 91 91 88 90 90 87 85 83 78 75
64 61 64 67 74 75 76 76 81 85 91 74 94 99 97 95 102 122 119 113 113 119 107 106 107 110 109 106 108 104 105 99 99 99 96 97 98 95 88 89 89 89 84 83
66 65 70 75 79 78 77 75 81 80 89 95 86 96 91 93 91 102 116 117 118 119 121 121 114 110 113 119 117 112 110 110 107 108 105 106 103 102 100 99 99 97 98 95
61 71 74 75 79 79 80 80 79 82 79 84 98 106 111 105 101 102 108 118 119 120 115 117 119 120 114 114 124 120 121 124 120 116 111 114 115 113 108 104 102 106 105 107
50 64 76 79 81 82 84 85 83 85 83 83 85 91 104 112 112 118 117 112 111 119 122 124 123 118 120 128 128 127 127 127 128 130 128 125 122 122 121 121 117 118 114 111
23 42 59 69 79 85 85 87 87 86 88 87 88 90 94 96 102 105 112 122 127 125 122 125 127 129 129 129 129 128 127 129 129 127 135 136 131 131 132 131 130 130 130 130
11 15 27 41 56 69 77 84 88 87 87 86 85 85 83 83 88 93 97 105 110 115 119 123 126 129 131 131 132 133 135 135 136 135 134 131 134 135 136 138 138 137 137 137
12 13 16 20 24 31 39 52 64 74 82 86 91 91 88 89 88 87 91 93 97 101 105 111 118 123 128 132 135 135 136 135 135 136 137 137 137 137 136 135 134 135 136 136
18 19 17 22 24 26 26 28 33 40 46 55 65 71 77 80 82 83 85 91 95 97 99 102 107 113 118 124 129 131 134 136 138 138 138 138 138 137 137 136 134 135 134 135
20 16 18 19 23 25 28 32 34 37 38 41 47 53 58 66 73 77 81 85 89 94 98 101 102 105 108 114 121 124 127 130 134 137 138 139 139 139 139 138 137 135 135 136
22 15 17 20 24 27 31 35 38 42 45 49 54 57 60 63 67 71 77 83 89 93 97 100 103 104 107 111 114 118 122 123 126 128 128 128 130 131 134 135 136 134 133 134
22 21 22 24 27 30 34 37 39 43 47 51 55 59 64 67 69 72 75 78 81 83 87 91 95 100 104 108 111 113 116 117 120 119 123 122 122 124 125 125 125 123 124 125
23 23 26 27 29 29 33 37 40 42 45 48 52 54 58 62 66 70 74 77 80 83 86 89 90 92 94 95 97 99 101 105 108 107 110 111 111 114 115 116 117 117 117 119
24 24 22 20 21 27 30 32 32 31 28 29 32 35 39 44 51 57 62 67 72 76 79 85 90 92 93 93 96 97 98 98 100 99 94 97 102 101 101 100 101 102 102 103
20 16 15 18 21 26 30 33 34 28 26 22 22 24 28 32 36 40 45 49 53 56 62 70 73 74 77 81 83 84 87 92 96 97 94 90 94 99 98 96 94 93 94 94
12 14 17 23 23 26 29 33 35 38 39 37 32 29 28 28 29 31 34 38 42 46 51 55 55 56 60 65 69 71 74 78 82 84 85 82 81 87 86 84 85 85 83 84
16 18 19 21 27 31 35 37 38 39 40 43 43 40 38 36 34 35 36 37 39 43 45 44 46 48 51 53 56 59 61 65 67 70 69 68 69 72 70 72 74 80 80 75
17 16 20 25 32 35 35 38 40 38 40 43 49 48 44 42 41 42 39 39 38 38 38 39 40 41 43 45 48 49 50 52 50 52 55 59 62 62 63 62 67 70 73 70
17 19 22 25 28 35 34 35 37 42 46 49 51 56 50 47 44 45 42 40 38 37 37 36 38 38 38 38 40 42 42 42 44 46 48 51 53 53 53 54 58 61 64 63
18 21 26 26 32 34 35 38 41 46 48 51 55 56 59 52 49 48 46 42 39 37 36 35 36 35 32 31 33 34 35 35 36 38 42 44 45 46 46 47 49 51 53 54

GFSNGP_250_spd_108.txt.gz
Wind_Speed
80 79 86 90 96 97 95 99 92 97 76 66 58 54 69 54 60 60 57 52 49 48 51 48 42 38 38 40 39 39 43 41 39 39 34 31 32 33 35 36 36 32 25 24
81 79 85 89 91 96 99 102 100 99 84 66 55 45 55 70 63 63 61 58 53 41 47 53 42 39 40 44 47 49 46 52 55 49 49 43 43 40 40 47 47 45 38 34
83 85 84 85 93 97 100 101 108 101 100 80 75 66 54 62 68 70 71 67 59 63 55 46 50 47 29 37 33 34 48 56 56 54 52 52 48 49 51 54 56 52 49 43
78 87 89 85 90 94 95 100 107 104 100 96 85 75 66 66 67 74 74 65 55 61 67 62 52 56 58 55 61 61 55 58 66 65 65 63 63 64 57 59 60 56 53 52
74 82 85 87 87 94 92 97 104 108 104 101 97 94 82 79 78 81 78 76 59 62 62 63 63 67 70 58 60 62 69 73 71 73 73 71 76 72 67 64 62 60 58 59
63 75 78 83 86 88 92 95 101 104 107 107 106 103 101 91 86 85 89 83 80 71 71 72 72 76 78 87 87 84 82 74 80 87 93 89 85 79 73 68 64 63 62 63
69 65 74 76 84 85 89 93 98 100 103 102 102 106 104 104 99 97 90 94 88 83 80 79 81 79 82 85 82 85 84 82 79 85 89 84 79 79 78 73 77 74 73 77
71 73 69 73 74 85 86 88 94 97 99 101 99 104 100 97 103 107 103 96 95 97 95 91 90 91 87 92 96 99 97 96 92 83 89 91 93 99 98 98 93 88 87 84
69 73 72 66 70 74 84 91 91 90 93 95 98 91 94 101 106 103 111 116 108 104 104 104 104 101 99 100 100 104 106 105 107 106 107 106 106 99 97 102 92 88 83 84
56 65 67 69 71 71 75 79 84 91 88 87 91 88 81 85 93 104 105 103 120 120 115 113 113 110 109 107 105 107 107 108 106 108 107 104 105 104 103 96 96 84 86 92
40 48 60 70 73 73 76 76 76 82 89 88 87 86 85 87 83 88 99 104 105 112 114 124 122 119 119 114 113 113 113 113 111 113 114 115 112 106 107 103 104 102 101 96
40 44 51 65 70 73 72 73 78 80 82 86 91 92 91 93 94 90 93 97 94 100 114 109 114 128 129 126 125 126 128 123 124 122 121 121 121 114 110 110 115 116 113 114
23 37 51 65 67 68 70 73 74 77 78 83 85 88 89 92 100 102 104 103 92 96 100 103 109 115 114 114 118 122 132 135 131 127 125 125 127 129 125 123 123 123 122 120
8 16 29 49 70 70 70 70 70 70 68 71 78 85 87 94 102 102 98 103 111 113 111 112 118 121 124 127 128 124 125 128 130 136 138 139 137 139 139 139 135 131 132 130
4 9 18 25 37 53 69 74 72 71 75 74 76 79 82 86 93 95 98 105 109 110 112 114 118 120 117 118 121 122 124 125 129 132 133 136 138 139 143 144 144 140 142 138
10 7 11 21 24 27 35 46 60 72 78 79 82 83 85 90 94 97 99 102 104 105 108 113 122 126 130 129 128 131 135 138 138 138 138 136 135 139 142 145 146 146 144 145
18 15 16 15 23 29 34 36 39 45 54 64 74 82 86 89 91 92 93 95 97 99 100 104 108 112 116 123 129 132 133 131 132 136 138 140 142 145 147 148 149 147 148 148
17 18 17 17 18 19 23 27 31 36 42 47 52 58 62 65 67 71 76 81 86 90 94 98 101 106 110 113 116 120 124 125 126 128 130 128 130 131 133 134 135 138 142 144
17 18 19 19 19 21 24 27 31 33 39 44 49 55 59 61 64 67 70 72 74 77 80 85 89 92 95 98 102 106 111 115 118 119 120 122 124 123 122 122 122 123 124 127
16 17 19 20 22 24 24 25 24 25 28 33 40 44 47 54 61 65 68 71 73 76 79 82 85 87 89 91 93 95 96 100 104 106 110 112 112 113 112 114 114 114 116 117
19 18 19 19 17 11 14 15 18 17 19 22 25 26 28 31 35 40 46 53 62 70 76 82 86 87 89 90 92 94 96 97 97 97 96 96 98 98 98 100 101 99 101 102
17 16 14 10 8 11 13 12 16 19 22 23 24 26 24 23 24 26 30 37 43 49 53 59 65 71 76 80 82 84 87 88 88 90 92 92 92 91 91 96 96 94 94 94
14 16 14 10 6 9 15 18 20 21 21 24 27 29 31 30 28 28 27 31 35 39 45 49 52 57 62 66 69 72 74 75 75 76 76 76 77 78 80 81 83 83 84 82
17 17 9 6 9 13 16 17 20 22 26 31 35 38 41 40 38 36 34 34 34 37 39 43 45 48 52 55 56 58 61 64 65 63 64 63 65 67 68 70 70 72 71 73
15 13 12 12 15 20 22 25 25 28 30 34 39 42 46 48 49 47 43 41 39 40 39 39 41 43 46 46 47 49 51 53 55 54 54 54 54 56 59 60 60 62 63 65
17 17 18 19 23 25 24 31 34 36 39 41 44 45 48 52 54 57 55 55 48 45 41 40 39 40 40 41 40 42 44 45 45 46 45 44 46 47 49 51 53 54 56 57
20 21 22 26 32 34 32 37 42 42 44 42 45 48 50 53 55 59 58 60 54 47 43 42 40 38 36 36 36 36 39 39 37 37 37 37 37 40 42 43 43 43 44 47

GFSNGP_250_spd_111.txt.gz
Wind_Speed
75 83 84 85 88 93 93 92 90 86 81 72 66 72 61 65 68 60 56 52 51 51 51 45 42 39 39 33 34 34 31 35 35 30 36 40 38 36 33 29 26 25 25 25
74 83 83 83 87 89 94 91 92 90 85 82 70 65 69 63 64 68 57 57 53 53 53 46 47 41 43 50 48 44 38 41 42 41 45 45 44 43 42 37 34 31 32 33
69 81 83 82 83 87 91 95 94 92 94 91 77 67 69 60 66 58 61 62 60 58 54 51 52 46 47 48 44 40 41 42 48 50 48 56 56 54 53 48 44 41 38 38
66 77 84 82 83 87 91 97 97 95 97 97 80 79 64 60 70 68 68 63 68 62 58 60 56 55 53 51 43 36 42 47 50 58 63 66 60 59 61 60 56 53 51 45
58 73 78 81 83 86 94 94 95 97 96 99 92 71 71 66 64 72 68 74 73 75 71 65 54 51 49 52 50 46 48 49 49 55 54 58 64 65 63 62 62 67 57 55
48 59 72 78 83 86 89 94 95 98 99 100 92 93 83 70 69 68 74 73 73 76 79 76 66 63 53 49 56 61 27 45 62 60 57 61 61 64 69 72 72 72 71 68
53 51 61 72 82 81 83 88 92 98 100 100 99 94 92 90 73 76 71 75 75 76 82 78 76 73 72 69 62 60 63 60 51 51 62 65 71 72 76 82 79 80 78 78
53 57 55 65 76 82 83 86 91 94 100 103 105 100 98 99 92 85 77 76 82 76 84 90 87 84 83 74 76 72 76 68 80 75 79 76 77 81 82 83 82 81 83 83
56 57 61 61 69 76 83 85 89 91 96 101 104 105 103 100 104 96 92 84 86 83 80 87 90 89 88 88 81 86 90 89 91 92 89 84 83 89 91 90 92 94 94 93
51 57 60 63 64 68 76 85 87 89 90 93 100 104 107 101 109 107 108 106 99 96 92 90 90 90 93 98 94 92 95 96 100 102 103 102 105 103 105 103 96 92 94 97
27 40 55 62 65 66 68 75 80 87 91 91 94 97 104 102 100 109 117 113 108 106 105 105 98 97 97 97 100 103 105 107 104 106 113 114 115 114 109 110 111 106 106 107
15 28 40 48 59 64 68 65 76 79 82 89 90 91 94 98 95 97 97 109 115 118 118 115 113 113 113 110 108 110 110 111 112 114 113 114 118 119 119 117 114 115 115 115
10 17 25 33 40 52 67 69 69 70 76 81 85 90 93 96 98 96 94 96 104 108 115 115 123 129 125 121 122 123 123 121 122 122 126 127 123 124 122 123 127 127 128 128
15 11 16 26 33 40 47 63 73 71 73 76 79 82 86 92 96 98 99 96 94 98 108 118 118 120 123 126 131 130 135 137 136 136 132 132 136 137 137 136 133 134 132 134
16 12 11 13 25 35 41 51 61 72 74 71 72 73 76 81 87 93 96 100 101 100 99 104 109 110 112 121 128 131 130 136 140 140 140 144 147 147 145 145 146 146 143 144
17 16 11 11 14 19 32 45 53 60 67 70 69 69 71 74 77 82 87 92 95 99 103 103 102 107 111 112 114 117 122 127 130 134 138 139 140 143 147 148 147 149 150 149
20 20 23 18 12 13 21 28 36 48 59 66 67 69 72 76 79 82 83 88 93 97 99 102 104 107 110 114 119 125 127 130 134 136 138 139 141 143 146 148 148 148 148 151
20 19 22 23 20 14 15 20 26 29 32 35 40 46 54 63 71 77 81 84 86 92 97 102 106 110 115 120 122 124 127 130 133 137 138 141 143 145 147 148 149 150 150 149
19 16 20 21 21 21 20 21 24 28 32 35 40 44 48 51 52 54 57 61 67 74 80 85 91 96 100 103 107 111 116 122 127 132 136 138 139 142 144 146 145 144 144 144
16 16 17 18 21 24 24 25 27 29 31 34 37 40 44 47 48 49 50 54 60 66 71 76 79 82 86 90 93 95 98 102 106 110 114 118 120 122 123 125 126 126 125 125
14 16 17 19 21 21 22 22 21 22 23 25 27 28 26 25 28 31 35 40 43 45 49 57 67 76 83 88 91 93 95 96 98 99 100 100 100 101 101 101 103 102 102 104
15 19 18 16 16 17 18 18 18 19 18 20 20 20 21 22 24 26 28 31 32 37 43 48 52 58 63 69 73 76 78 81 84 86 87 88 88 89 89 90 91 93 94 94
18 18 15 15 18 19 16 17 17 17 17 20 20 23 27 28 29 31 33 38 38 38 40 43 48 51 57 61 65 68 71 74 76 76 76 76 76 76 77 77 78 79 80 80
17 13 14 19 18 15 14 17 18 20 21 25 32 35 37 36 36 36 38 42 44 47 47 47 47 47 51 54 57 59 61 63 65 64 65 65 66 66 65 67 68 68 69 68
13 14 17 17 17 16 15 20 23 28 31 30 36 43 43 41 40 38 40 44 46 48 51 53 49 46 47 48 50 53 56 56 55 55 55 56 56 55 57 57 57 56 60 59
14 17 18 17 19 22 23 26 31 34 37 37 39 40 42 43 42 43 45 47 49 51 55 57 54 48 47 46 47 49 50 50 49 49 49 47 47 48 48 48 48 49 51 52
18 21 22 21 22 23 24 25 29 33 36 38 41 45 45 45 45 46 48 51 53 56 59 60 56 53 48 48 46 46 45 45 45 43 44 43 41 41 40 41 41 42 43 43

GFSNGP_250_spd_114.txt.gz
Wind_Speed
32 27 43 65 87 99 100 97 98 102 98 89 88 85 76 75 71 62 61 61 58 52 52 46 42 45 45 40 36 33 30 36 32 23 18 16 23 29 31 31 31 27 26 21
34 31 40 57 78 94 98 96 95 97 96 90 90 87 87 77 79 72 60 57 58 60 56 50 47 47 50 48 43 40 38 40 41 35 34 32 33 36 43 39 38 36 34 33
34 35 42 57 74 90 93 90 90 94 95 92 88 90 88 75 86 81 68 65 62 61 58 54 52 52 57 53 49 44 44 39 44 40 40 37 37 46 44 46 48 46 43 42
35 37 42 57 71 85 90 88 88 92 95 92 85 81 89 74 76 80 76 72 67 67 65 61 53 56 56 58 53 52 50 48 48 49 49 47 47 48 51 55 56 52 53 53
34 37 43 56 73 81 87 89 89 90 91 90 88 65 71 77 64 66 76 78 75 68 68 63 62 61 57 58 56 57 54 50 50 51 45 43 48 53 58 63 60 62 64 63
34 37 43 55 70 82 84 88 88 89 83 86 86 85 71 77 67 70 69 76 77 73 70 72 65 63 58 51 57 56 58 54 53 50 46 46 54 53 61 65 65 69 72 70
38 41 41 51 62 78 83 85 88 89 90 89 82 87 89 87 82 71 74 68 68 75 75 72 67 69 65 64 59 56 55 62 61 54 53 51 58 63 65 69 69 71 71 73
37 42 42 47 59 75 79 84 85 84 87 90 87 81 85 91 87 84 73 76 77 73 73 73 70 73 75 75 74 61 66 55 31 50 45 54 66 70 69 73 74 75 75 74
39 40 47 45 52 68 82 81 84 85 91 91 96 89 80 87 94 85 85 78 78 79 78 79 83 80 78 76 79 78 70 71 69 64 54 57 58 71 74 75 78 79 84 81
27 42 45 52 51 55 70 80 81 82 85 91 93 96 88 91 90 94 91 86 85 80 81 85 82 82 89 92 89 84 78 74 70 70 83 85 65 63 73 82 86 88 88 87
10 26 46 50 56 54 57 69 78 82 85 86 90 93 95 94 94 95 93 97 89 87 89 88 89 94 90 92 94 92 91 90 90 83 80 92 84 83 86 85 93 93 93 97
9 10 24 46 55 60 58 58 63 78 82 83 83 87 92 96 97 99 96 95 97 96 95 93 91 90 94 99 102 99 100 100 99 104 106 103 102 102 104 103 102 105 104 104
10 9 11 19 35 53 57 64 59 63 74 81 82 83 86 88 91 94 98 102 99 100 105 104 100 99 99 102 104 106 105 105 111 115 115 118 122 123 123 120 116 118 121 122
15 10 9 10 20 30 47 59 61 66 63 69 74 79 85 87 87 87 89 91 95 102 106 109 110 112 113 113 113 109 113 111 114 116 118 122 124 123 123 125 128 131 131 127
13 11 9 7 12 23 28 38 50 61 65 67 66 69 76 82 87 89 91 91 91 91 95 103 112 117 119 119 118 119 117 114 117 126 123 125 130 131 133 132 131 132 133 137
16 12 10 10 7 10 19 30 34 43 56 63 69 72 72 75 77 81 85 87 90 93 95 96 101 106 113 120 125 127 130 134 132 133 136 132 134 136 137 139 142 144 147 148
22 20 14 13 14 12 11 17 23 31 38 48 57 62 68 72 74 76 79 81 83 86 89 91 94 96 100 106 115 120 125 130 134 141 147 150 150 150 152 154 154 153 156 160
25 24 20 19 19 16 17 14 15 22 27 34 43 52 61 67 71 75 76 77 79 82 86 91 95 98 101 104 108 113 118 122 126 129 133 139 147 150 152 155 159 162 164 164
24 24 19 23 19 18 19 20 18 19 22 27 32 37 43 49 56 60 62 64 65 68 72 77 82 87 91 95 100 104 109 113 119 124 129 134 137 140 144 147 150 154 155 155
23 25 22 25 18 18 19 21 22 20 22 24 27 30 32 35 38 41 45 48 51 54 58 62 67 71 74 79 83 90 97 105 110 113 119 125 128 132 133 135 137 138 138 140
24 24 26 21 18 20 19 21 22 22 23 25 25 26 28 30 33 36 39 40 40 42 45 47 50 55 61 66 72 77 82 87 92 98 104 109 112 114 114 115 115 116 117 118
25 25 25 19 20 19 19 20 18 19 19 20 21 22 24 25 26 27 31 33 36 37 39 40 43 47 49 52 57 62 68 74 79 82 85 89 92 94 96 96 94 94 94 94
25 24 22 19 21 21 19 19 21 21 19 18 17 19 21 23 25 29 32 34 35 34 36 42 42 43 46 50 53 56 59 64 67 69 71 73 75 78 79 79 79 79 79 79
22 20 18 19 20 20 19 21 23 20 19 20 19 20 25 29 33 36 38 40 40 37 42 45 47 48 50 53 56 57 56 57 59 62 63 64 64 65 65 66 67 67 67 65
20 18 16 17 19 16 17 19 21 22 23 25 28 29 29 30 35 37 39 41 42 44 48 49 50 52 53 57 57 56 54 54 56 56 55 56 58 58 56 55 54 53 52 52
20 17 15 15 15 16 17 19 22 25 27 28 27 30 33 34 37 38 41 41 42 45 48 52 53 56 58 58 56 54 53 51 52 51 50 51 51 51 50 48 44 43 43 44
26 23 21 20 18 19 22 25 26 27 29 31 32 35 38 40 43 44 44 47 48 48 51 53 56 61 61 59 56 55 54 51 50 49 48 49 47 47 44 42 41 40 40 39

GFSNGP_250_spd_117.txt.gz
Wind_Speed
47 48 43 35 44 72 93 98 98 104 106 104 99 91 87 80 69 72 65 61 59 61 52 48 47 46 41 44 39 35 37 32 29 29 33 28 23 23 24 24 21 21 21 21
51 43 39 37 41 62 86 101 100 101 107 103 101 99 89 85 71 75 68 62 62 59 58 54 49 53 48 45 42 41 41 40 35 33 38 36 30 30 26 27 31 30 29 29
43 34 34 37 44 57 77 94 105 102 104 103 101 102 95 91 77 79 73 72 65 58 57 57 53 52 55 54 50 49 43 44 42 37 37 43 38 36 34 33 35 38 39 42
29 25 33 40 46 57 70 86 102 105 103 101 93 88 99 95 87 79 77 75 71 68 64 70 63 57 57 56 53 52 49 50 47 44 43 41 47 44 40 41 43 46 49 46
17 26 38 42 43 50 62 80 97 104 100 98 95 71 87 92 93 91 81 82 76 68 68 64 64 67 62 60 55 55 54 56 55 51 49 48 50 50 50 50 48 51 51 58
12 26 35 38 43 49 57 69 88 103 100 96 94 87 81 86 92 91 87 78 83 85 76 71 67 68 65 64 64 60 58 58 58 48 56 56 55 55 53 52 55 55 61 60
14 27 35 37 44 50 55 61 78 94 99 92 78 78 71 79 93 94 98 77 81 89 84 80 73 72 70 69 67 63 60 58 61 61 62 62 63 60 60 58 58 62 64 63
13 28 35 35 40 47 56 63 70 85 92 80 81 71 77 75 82 94 95 95 78 86 87 85 78 77 76 75 73 71 69 66 68 66 68 66 62 60 60 59 70 72 70 70
9 27 35 36 39 45 54 59 67 80 77 65 75 78 81 82 80 79 89 96 76 78 90 86 80 79 79 80 78 74 73 70 69 67 69 66 60 66 68 71 65 68 71 75
11 16 31 38 34 38 47 56 61 71 83 76 68 69 77 82 82 79 74 81 85 72 72 84 79 77 75 74 79 79 78 76 76 74 69 60 49 55 64 69 73 71 76 78
13 9 23 35 41 39 41 52 59 68 76 79 81 76 71 69 83 83 82 79 82 84 82 79 80 84 85 82 79 78 79 80 81 83 84 74 69 71 70 78 80 82 82 79
12 7 6 25 41 47 43 44 52 63 72 79 82 83 83 80 77 81 89 85 82 85 86 84 81 81 79 82 87 82 82 84 83 84 83 89 92 94 86 85 87 91 95 91
19 10 7 8 25 44 49 49 47 51 66 72 79 81 82 84 84 86 86 90 94 99 97 97 92 86 87 91 90 88 90 89 86 88 93 95 100 100 100 105 111 112 112 110
22 15 10 6 8 20 41 50 53 52 51 58 69 74 81 83 85 87 88 89 89 88 91 100 101 98 100 95 94 95 95 97 98 101 97 99 103 104 108 110 112 116 115 115
22 20 15 8 6 6 18 33 50 54 56 54 54 59 68 76 84 88 87 89 90 92 94 94 96 100 103 102 98 101 100 103 109 112 112 112 115 115 114 113 115 119 121 123
19 20 16 14 12 8 4 12 25 43 56 58 58 58 58 60 69 76 81 86 87 90 91 94 97 100 104 105 106 109 112 110 114 117 121 120 124 125 126 131 133 133 135 136
17 20 17 13 13 15 10 7 8 18 32 43 57 62 61 61 62 63 67 74 81 85 86 88 89 92 94 100 107 113 117 118 120 123 123 127 129 133 133 136 136 140 141 144
19 20 20 16 13 17 14 15 15 14 17 27 35 42 55 67 67 68 68 68 69 70 72 76 80 84 87 91 96 102 106 112 118 122 127 132 135 139 142 146 148 148 147 146
20 19 21 19 17 14 15 16 17 19 15 16 21 29 37 43 53 62 66 67 69 71 72 75 78 81 84 88 91 95 99 104 110 116 121 126 131 135 140 144 148 151 154 157
20 21 23 21 20 15 16 15 16 17 18 18 19 21 25 28 31 35 39 43 46 49 52 56 60 64 69 74 78 82 87 92 98 104 110 115 122 126 130 134 138 141 145 149
22 23 27 23 22 17 17 15 16 18 21 23 23 25 26 28 30 33 35 36 37 39 41 43 47 51 54 57 62 66 70 73 78 82 87 92 99 104 108 111 114 117 120 122
27 27 25 24 25 18 19 17 18 19 20 19 19 20 20 21 23 23 25 27 30 33 37 42 45 48 51 54 57 58 61 65 69 72 77 82 86 90 92 94 96 98 100 103
28 28 26 24 22 19 20 20 20 20 18 18 19 20 19 19 21 23 26 30 34 37 38 41 44 47 49 51 53 55 56 59 61 65 70 76 79 81 84 85 86 87 85 84
29 29 26 23 20 19 21 20 21 21 19 18 21 22 21 21 21 26 30 33 35 38 41 42 44 46 47 49 51 53 55 59 63 66 68 70 71 72 72 74 74 74 72 72
30 28 24 22 18 20 21 20 21 19 18 19 21 23 23 23 26 25 29 33 36 37 40 43 44 46 47 48 51 54 58 62 66 66 64 62 63 63 63 62 63 62 62 62
30 25 26 23 22 22 19 19 18 19 18 19 22 25 25 26 29 32 34 37 39 40 42 45 48 49 51 53 56 59 63 66 64 60 58 58 57 56 54 53 52 52 52 52
25 24 27 25 24 20 19 19 20 20 20 23 27 29 29 30 34 36 38 40 41 41 45 48 50 54 58 59 61 65 66 64 58 57 54 52 51 48 47 46 46 46 45 45

GFSNGP_250_spd_123.txt.gz
Wind_Speed
36 39 36 39 40 42 46 38 39 35 42 47 75 87 87 91 87 81 78 77 68 63 57 55 52 50 46 41 37 37 36 34 33 29 25 23 22 22 21 25 23 23 24 23
38 40 38 39 41 42 54 49 43 42 44 37 69 83 93 95 91 85 82 78 70 58 67 60 56 51 50 46 46 44 39 37 36 36 33 30 28 27 27 28 28 33 32 30
43 38 37 40 48 50 53 51 50 49 54 40 65 81 93 90 94 88 83 80 74 72 71 69 59 53 53 49 49 48 47 46 41 38 40 39 35 34 33 31 34 34 34 37
42 38 40 43 49 52 55 58 52 61 45 49 55 84 85 94 97 81 68 79 79 72 69 67 64 61 57 54 52 52 50 48 47 43 41 42 42 41 40 37 38 38 39 38
40 41 44 39 49 52 47 48 63 60 64 63 74 76 94 91 95 95 80 83 81 78 79 67 67 68 62 62 59 57 52 53 52 54 52 48 46 44 43 46 44 43 41 42
40 41 44 44 36 21 30 34 46 56 64 63 67 78 81 89 98 97 87 86 85 83 80 72 74 68 66 64 62 59 58 54 59 57 60 58 56 52 50 48 48 49 50 50
37 41 44 40 28 30 30 22 27 47 57 58 66 75 78 91 94 99 94 91 86 93 79 82 79 72 71 67 67 60 60 61 68 67 63 62 63 61 58 56 55 53 52 52
35 39 43 35 19 16 23 28 33 41 48 57 66 74 80 84 94 100 91 97 96 97 93 84 80 77 74 69 67 65 62 68 70 74 72 68 67 68 65 61 58 60 58 53
32 35 36 29 18 14 21 27 34 33 42 52 67 70 80 79 87 99 100 97 100 95 97 87 75 83 81 76 78 67 68 65 73 73 70 73 72 74 75 73 71 71 72 73
30 32 33 26 16 17 19 21 25 31 38 56 65 73 81 77 83 97 89 96 100 98 98 99 92 74 82 86 82 81 80 76 74 72 79 79 77 78 75 74 74 72 76 78
26 28 30 26 18 19 22 21 21 28 42 52 62 74 80 82 83 90 86 93 92 102 101 99 92 78 87 85 84 80 86 91 94 90 89 86 78 83 85 81 83 84 88 86
24 23 10 26 18 18 26 28 23 25 34 47 58 70 79 87 91 93 92 87 86 94 104 106 101 89 73 89 90 87 86 85 88 85 85 87 90 90 91 91 91 91 90 91
22 20 20 21 20 12 26 33 31 28 32 37 55 68 75 75 81 89 91 96 92 87 93 101 110 109 96 98 92 92 92 89 91 90 90 87 90 92 88 88 90 90 91 92
21 18 19 19 20 15 13 31 34 32 34 39 45 67 71 78 80 87 90 93 89 88 94 97 99 100 96 95 89 95 99 99 96 91 89 88 89 91 92 100 99 97 93 89
20 17 17 19 19 18 14 15 32 37 34 34 43 53 72 74 78 84 93 97 96 95 97 96 95 94 102 102 92 90 94 95 93 96 95 89 90 93 92 93 97 96 100 103
19 19 18 18 18 19 15 14 17 35 42 40 42 51 59 75 74 74 79 90 96 96 95 95 95 94 96 98 103 99 98 99 101 104 106 101 98 101 101 101 98 101 105 106
19 20 19 19 20 18 19 14 15 18 38 46 43 45 57 64 77 75 75 80 89 98 97 101 102 97 97 93 93 96 100 104 108 111 116 115 115 112 113 112 112 117 122 123
20 21 18 21 22 18 17 15 15 16 17 32 49 49 48 55 69 83 80 76 75 77 81 91 99 103 101 101 101 101 106 110 108 107 106 107 109 116 121 121 122 126 129 125
23 22 19 22 25 21 18 18 13 16 20 20 25 38 52 49 53 68 78 81 82 84 84 83 82 82 88 99 101 104 109 109 110 110 111 111 113 116 118 121 125 128 128 134
22 23 22 24 25 24 21 19 18 16 18 23 23 25 34 48 57 59 60 61 71 73 74 79 88 94 94 95 96 100 107 112 112 116 118 115 114 116 120 125 129 131 136 138
21 23 26 27 25 25 23 22 22 20 18 21 23 26 31 32 42 50 51 55 64 67 67 68 71 73 76 80 84 87 92 97 101 106 110 111 114 116 119 121 124 126 130 133
26 23 22 19 22 25 26 26 25 24 23 22 24 24 25 29 31 29 30 35 39 45 51 55 60 65 69 72 76 79 82 84 87 89 92 94 96 98 99 101 104 107 110 114
30 29 26 23 24 25 27 28 28 28 28 23 25 24 24 25 26 28 29 30 32 34 37 41 44 47 50 52 53 54 56 59 62 66 68 70 73 75 79 82 87 93 97 99
37 36 34 33 28 28 31 30 29 30 30 27 28 25 24 24 23 25 27 28 29 30 32 34 36 38 39 40 42 43 46 49 53 55 56 59 62 67 71 76 82 88 87 85
40 36 36 32 31 31 30 31 33 33 32 29 30 27 24 23 22 24 25 27 26 27 30 32 34 35 36 39 42 44 46 49 50 51 55 57 61 67 73 74 79 78 72 71
43 44 42 38 37 32 34 33 33 33 31 32 31 26 24 23 22 23 25 28 28 29 30 31 33 36 39 41 44 45 47 47 48 53 57 61 66 71 74 76 77 76 70 65
44 42 44 43 38 37 36 34 35 32 31 32 30 28 26 25 22 20 23 28 29 31 32 35 37 39 40 43 44 46 46 48 52 57 63 66 68 72 75 78 76 73 65 60